Wetterdaten: Montag, 21.03.2016
Datum Zeit Temp. Aussen Temp. o. S. +5cm Feuchte Auss BlattFeu 1 Luftdruck Regen Sonnenschein Regendauer Solar Windben Empfang
21.03.2016 00:00 6,6 C 6,1 C 5,0 C 95 % 15 lf 1019,0 hPa 0,0 l/m 0 min 0 min 0 W/m 14,6 km/h (3 Bft) 91,30 %
21.03.2016 00:02 6,6 C 6,1 C 5,0 C 95 % 15 lf 1019,0 hPa 0,0 l/m 0 min 0 min 0 W/m 10,5 km/h (2 Bft) 95,00 %
21.03.2016 00:05 6,6 C 6,1 C 5,0 C 95 % 15 lf 1018,9 hPa 0,0 l/m 0 min 0 min 0 W/m 12,6 km/h (3 Bft) 97,18 %
21.03.2016 00:06 6,6 C 6,1 C 5,0 C 95 % 15 lf 1018,9 hPa 0,0 l/m 0 min 0 min 0 W/m 8,4 km/h (2 Bft) 91,67 %
21.03.2016 00:08 6,6 C 6,1 C 5,0 C 95 % 15 lf 1019,0 hPa 0,0 l/m 0 min 0 min 0 W/m 8,4 km/h (2 Bft) 93,62 %
21.03.2016 00:10 6,6 C 6,1 C 5,0 C 95 % 15 lf 1019,0 hPa 0,0 l/m 0 min 0 min 0 W/m 12,6 km/h (3 Bft) 93,62 %
21.03.2016 00:12 6,6 C 6,1 C 5,0 C 95 % 15 lf 1019,0 hPa 0,0 l/m 0 min 0 min 0 W/m 12,6 km/h (3 Bft) 95,65 %
21.03.2016 00:14 6,5 C 6,1 C 5,0 C 95 % 15 lf 1019,0 hPa 0,0 l/m 0 min 0 min 0 W/m 10,5 km/h (2 Bft) 97,87 %
21.03.2016 00:16 6,5 C 6,1 C 5,0 C 95 % 15 lf 1019,1 hPa 0,0 l/m 0 min 0 min 0 W/m 14,6 km/h (3 Bft) 97,87 %
21.03.2016 00:18 6,5 C 6,1 C 5,0 C 95 % 15 lf 1019,1 hPa 0,0 l/m 0 min 0 min 0 W/m 12,6 km/h (3 Bft) 95,74 %
21.03.2016 00:20 6,5 C 6,1 C 5,0 C 95 % 15 lf 1019,1 hPa 0,0 l/m 0 min 0 min 0 W/m 14,6 km/h (3 Bft) 97,87 %
21.03.2016 00:22 6,5 C 6,1 C 5,0 C 95 % 15 lf 1019,1 hPa 0,0 l/m 0 min 0 min 0 W/m 12,6 km/h (3 Bft) 97,87 %
21.03.2016 00:24 6,5 C 6,1 C 5,0 C 95 % 15 lf 1019,1 hPa 0,0 l/m 0 min 0 min 0 W/m 14,6 km/h (3 Bft) 97,83 %
21.03.2016 00:26 6,5 C 6,1 C 5,0 C 95 % 15 lf 1019,1 hPa 0,0 l/m 0 min 0 min 0 W/m 12,6 km/h (3 Bft) 97,87 %
21.03.2016 00:28 6,5 C 6,1 C 5,0 C 95 % 15 lf 1019,1 hPa 0,0 l/m 0 min 0 min 0 W/m 16,7 km/h (3 Bft) 95,74 %
21.03.2016 00:30 6,5 C 6,1 C 5,0 C 95 % 15 lf 1019,1 hPa 0,0 l/m 0 min 0 min 0 W/m 14,6 km/h (3 Bft) 97,87 %
21.03.2016 00:32 6,5 C 6,1 C 5,0 C 95 % 15 lf 1019,2 hPa 0,0 l/m 0 min 0 min 0 W/m 16,7 km/h (3 Bft) 97,87 %
21.03.2016 00:34 6,4 C 6,1 C 5,0 C 95 % 15 lf 1019,1 hPa 0,0 l/m 0 min 0 min 0 W/m 14,6 km/h (3 Bft) 97,83 %
21.03.2016 00:36 6,4 C 6,1 C 5,0 C 95 % 15 lf 1019,2 hPa 0,0 l/m 0 min 0 min 0 W/m 23,0 km/h (4 Bft) 95,35 %
21.03.2016 00:38 6,4 C 6,1 C 5,0 C 95 % 15 lf 1019,2 hPa 0,0 l/m 0 min 0 min 0 W/m 14,6 km/h (3 Bft) 97,87 %
21.03.2016 00:40 6,4 C 6,1 C 5,0 C 95 % 15 lf 1019,2 hPa 0,0 l/m 0 min 0 min 0 W/m 14,6 km/h (3 Bft) 97,87 %
21.03.2016 00:42 6,4 C 6,1 C 5,0 C 95 % 15 lf 1019,2 hPa 0,0 l/m 0 min 0 min 0 W/m 18,8 km/h (3 Bft) 97,87 %
21.03.2016 00:44 6,4 C 6,1 C 5,0 C 95 % 15 lf 1019,2 hPa 0,0 l/m 0 min 0 min 0 W/m 20,9 km/h (4 Bft) 97,87 %
21.03.2016 00:46 6,4 C 6,1 C 5,0 C 95 % 15 lf 1019,2 hPa 0,0 l/m 0 min 0 min 0 W/m 10,5 km/h (2 Bft) 95,74 %
21.03.2016 00:48 6,4 C 6,1 C 5,0 C 95 % 15 lf 1019,2 hPa 0,0 l/m 0 min 0 min 0 W/m 18,8 km/h (3 Bft) 95,65 %
21.03.2016 00:50 6,3 C 6,1 C 4,4 C 95 % 15 lf 1019,2 hPa 0,0 l/m 0 min 0 min 0 W/m 12,6 km/h (3 Bft) 95,74 %
21.03.2016 00:52 6,3 C 6,1 C 4,4 C 95 % 15 lf 1019,1 hPa 0,0 l/m 0 min 0 min 0 W/m 18,8 km/h (3 Bft) 93,62 %
21.03.2016 00:54 6,3 C 6,1 C 4,4 C 95 % 15 lf 1019,1 hPa 0,0 l/m 0 min 0 min 0 W/m 16,7 km/h (3 Bft) 97,87 %
21.03.2016 00:56 6,3 C 6,1 C 4,4 C 95 % 15 lf 1019,1 hPa 0,0 l/m 0 min 0 min 0 W/m 14,6 km/h (3 Bft) 95,74 %
21.03.2016 00:58 6,2 C 6,1 C 4,4 C 95 % 15 lf 1019,1 hPa 0,0 l/m 0 min 0 min 0 W/m 16,7 km/h (3 Bft) 97,83 %
21.03.2016 01:00 6,2 C 6,1 C 4,4 C 95 % 15 lf 1019,2 hPa 0,0 l/m 0 min 0 min 0 W/m 16,7 km/h (3 Bft) 100,00 %
21.03.2016 01:02 6,2 C 6,1 C 4,4 C 95 % 15 lf 1019,1 hPa 0,0 l/m 0 min 0 min 0 W/m 18,8 km/h (3 Bft) 97,92 %
21.03.2016 01:04 6,2 C 6,1 C 4,4 C 95 % 15 lf 1019,0 hPa 0,0 l/m 0 min 0 min 0 W/m 14,6 km/h (3 Bft) 97,87 %
21.03.2016 01:06 6,2 C 6,1 C 4,4 C 95 % 15 lf 1019,0 hPa 0,0 l/m 0 min 0 min 0 W/m 12,6 km/h (3 Bft) 94,00 %
21.03.2016 01:08 6,1 C 5,6 C 4,4 C 95 % 15 lf 1019,0 hPa 0,0 l/m 0 min 0 min 0 W/m 10,5 km/h (2 Bft) 93,62 %
21.03.2016 01:10 6,1 C 5,6 C 4,4 C 95 % 15 lf 1019,0 hPa 0,0 l/m 0 min 0 min 0 W/m 10,5 km/h (2 Bft) 97,83 %
21.03.2016 01:12 6,1 C 5,6 C 4,4 C 95 % 15 lf 1019,0 hPa 0,0 l/m 0 min 0 min 0 W/m 8,4 km/h (2 Bft) 95,74 %
21.03.2016 01:14 6,1 C 5,6 C 4,4 C 95 % 15 lf 1019,0 hPa 0,0 l/m 0 min 0 min 0 W/m 10,5 km/h (2 Bft) 95,74 %
21.03.2016 01:16 6,1 C 5,6 C 4,4 C 95 % 15 lf 1019,0 hPa 0,0 l/m 0 min 0 min 0 W/m 10,5 km/h (2 Bft) 97,87 %
21.03.2016 01:18 6,1 C 5,6 C 4,4 C 95 % 15 lf 1019,0 hPa 0,0 l/m 0 min 0 min 0 W/m 10,5 km/h (2 Bft) 97,87 %
21.03.2016 01:20 6,1 C 5,6 C 4,4 C 95 % 15 lf 1019,0 hPa 0,0 l/m 0 min 0 min 0 W/m 10,5 km/h (2 Bft) 97,87 %
21.03.2016 01:22 6,1 C 5,6 C 4,4 C 95 % 15 lf 1019,0 hPa 0,0 l/m 0 min 0 min 0 W/m 8,4 km/h (2 Bft) 97,83 %
21.03.2016 01:24 6,0 C 5,6 C 4,4 C 95 % 15 lf 1019,0 hPa 0,0 l/m 0 min 0 min 0 W/m 10,5 km/h (2 Bft) 95,74 %
21.03.2016 01:26 6,0 C 5,6 C 4,4 C 95 % 15 lf 1019,0 hPa 0,0 l/m 0 min 0 min 0 W/m 10,5 km/h (2 Bft) 93,62 %
21.03.2016 01:28 6,0 C 5,6 C 4,4 C 95 % 15 lf 1019,0 hPa 0,0 l/m 0 min 0 min 0 W/m 10,5 km/h (2 Bft) 100,00 %
21.03.2016 01:30 6,0 C 5,6 C 4,4 C 95 % 15 lf 1019,0 hPa 0,0 l/m 0 min 0 min 0 W/m 10,5 km/h (2 Bft) 95,74 %
21.03.2016 01:32 6,0 C 5,6 C 4,4 C 95 % 15 lf 1019,0 hPa 0,0 l/m 0 min 0 min 0 W/m 12,6 km/h (3 Bft) 97,14 %
21.03.2016 01:34 5,9 C 5,6 C 4,4 C 95 % 15 lf 1019,0 hPa 0,0 l/m 0 min 0 min 0 W/m 12,6 km/h (3 Bft) 96,15 %
21.03.2016 01:36 5,9 C 5,6 C 4,4 C 95 % 15 lf 1019,0 hPa 0,0 l/m 0 min 0 min 0 W/m 12,6 km/h (3 Bft) 98,00 %
21.03.2016 01:38 5,9 C 5,6 C 4,4 C 95 % 15 lf 1019,0 hPa 0,0 l/m 0 min 0 min 0 W/m 10,5 km/h (2 Bft) 97,87 %
21.03.2016 01:40 5,9 C 5,6 C 4,4 C 95 % 15 lf 1019,0 hPa 0,0 l/m 0 min 0 min 0 W/m 12,6 km/h (3 Bft) 95,74 %
21.03.2016 01:42 5,9 C 5,6 C 4,4 C 95 % 15 lf 1019,0 hPa 0,0 l/m 0 min 0 min 0 W/m 8,4 km/h (2 Bft) 93,75 %
21.03.2016 01:44 5,9 C 5,6 C 4,4 C 95 % 15 lf 1019,1 hPa 0,0 l/m 0 min 0 min 0 W/m 10,5 km/h (2 Bft) 95,65 %
21.03.2016 01:46 5,9 C 5,6 C 4,4 C 95 % 15 lf 1018,9 hPa 0,0 l/m 0 min 0 min 0 W/m 12,6 km/h (3 Bft) 93,62 %
21.03.2016 01:48 5,9 C 5,6 C 4,4 C 95 % 15 lf 1019,0 hPa 0,0 l/m 0 min 0 min 0 W/m 4,2 km/h (1 Bft) 95,74 %
21.03.2016 01:50 5,9 C 5,6 C 4,4 C 95 % 15 lf 1019,0 hPa 0,0 l/m 0 min 0 min 0 W/m 6,3 km/h (2 Bft) 93,62 %
21.03.2016 01:52 5,9 C 5,6 C 4,4 C 95 % 15 lf 1019,0 hPa 0,0 l/m 0 min 0 min 0 W/m 6,3 km/h (2 Bft) 95,74 %
21.03.2016 01:54 5,9 C 5,6 C 4,4 C 95 % 15 lf 1019,0 hPa 0,0 l/m 0 min 0 min 0 W/m 8,4 km/h (2 Bft) 95,74 %
21.03.2016 01:56 5,8 C 5,6 C 4,4 C 95 % 15 lf 1019,0 hPa 0,0 l/m 0 min 0 min 0 W/m 8,4 km/h (2 Bft) 95,65 %
21.03.2016 01:58 5,8 C 5,6 C 4,4 C 95 % 15 lf 1018,9 hPa 0,0 l/m 0 min 0 min 0 W/m 8,4 km/h (2 Bft) 93,62 %
21.03.2016 02:00 5,8 C 5,6 C 4,4 C 95 % 15 lf 1019,0 hPa 0,0 l/m 0 min 0 min 0 W/m 6,3 km/h (2 Bft) 95,74 %
21.03.2016 02:02 5,8 C 5,6 C 4,4 C 95 % 15 lf 1019,0 hPa 0,0 l/m 0 min 0 min 0 W/m 6,3 km/h (2 Bft) 95,83 %
21.03.2016 02:04 5,8 C 5,6 C 4,4 C 95 % 15 lf 1019,0 hPa 0,0 l/m 0 min 0 min 0 W/m 8,4 km/h (2 Bft) 93,62 %
21.03.2016 02:06 5,8 C 5,6 C 4,4 C 95 % 15 lf 1019,0 hPa 0,0 l/m 0 min 0 min 0 W/m 10,5 km/h (2 Bft) 95,83 %
21.03.2016 02:08 5,8 C 5,6 C 3,9 C 95 % 15 lf 1018,9 hPa 0,0 l/m 0 min 0 min 0 W/m 8,4 km/h (2 Bft) 100,00 %
21.03.2016 02:10 5,8 C 5,6 C 3,9 C 95 % 15 lf 1018,9 hPa 0,0 l/m 0 min 0 min 0 W/m 12,6 km/h (3 Bft) 97,87 %
21.03.2016 02:12 5,8 C 5,6 C 3,9 C 95 % 15 lf 1018,9 hPa 0,0 l/m 0 min 0 min 0 W/m 12,6 km/h (3 Bft) 97,87 %
21.03.2016 02:14 5,8 C 5,6 C 3,9 C 95 % 15 lf 1018,9 hPa 0,0 l/m 0 min 0 min 0 W/m 10,5 km/h (2 Bft) 95,74 %
21.03.2016 02:16 5,8 C 5,6 C 3,9 C 95 % 15 lf 1019,0 hPa 0,0 l/m 0 min 0 min 0 W/m 10,5 km/h (2 Bft) 97,87 %
21.03.2016 02:18 5,8 C 5,6 C 4,4 C 95 % 15 lf 1018,9 hPa 0,0 l/m 0 min 0 min 0 W/m 10,5 km/h (2 Bft) 95,74 %
21.03.2016 02:20 5,7 C 5,6 C 4,4 C 95 % 15 lf 1018,9 hPa 0,0 l/m 0 min 0 min 0 W/m 12,6 km/h (3 Bft) 97,83 %
21.03.2016 02:22 5,7 C 5,6 C 4,4 C 95 % 15 lf 1018,9 hPa 0,0 l/m 0 min 0 min 0 W/m 14,6 km/h (3 Bft) 95,74 %
21.03.2016 02:24 5,7 C 5,6 C 4,4 C 95 % 15 lf 1018,9 hPa 0,0 l/m 0 min 0 min 0 W/m 8,4 km/h (2 Bft) 100,00 %
21.03.2016 02:26 5,7 C 5,6 C 4,4 C 95 % 15 lf 1018,8 hPa 0,0 l/m 0 min 0 min 0 W/m 12,6 km/h (3 Bft) 100,00 %
21.03.2016 02:28 5,7 C 5,6 C 4,4 C 95 % 15 lf 1018,8 hPa 0,0 l/m 0 min 0 min 0 W/m 10,5 km/h (2 Bft) 100,00 %
21.03.2016 02:30 5,7 C 5,6 C 4,4 C 95 % 15 lf 1018,8 hPa 0,0 l/m 0 min 0 min 0 W/m 14,6 km/h (3 Bft) 97,87 %
21.03.2016 02:32 5,7 C 5,6 C 4,4 C 95 % 15 lf 1018,8 hPa 0,0 l/m 0 min 0 min 0 W/m 8,4 km/h (2 Bft) 95,65 %
21.03.2016 02:34 5,7 C 5,6 C 4,4 C 95 % 15 lf 1018,8 hPa 0,0 l/m 0 min 0 min 0 W/m 12,6 km/h (3 Bft) 95,74 %
21.03.2016 02:36 5,7 C 5,6 C 4,4 C 95 % 15 lf 1018,9 hPa 0,0 l/m 0 min 0 min 0 W/m 8,4 km/h (2 Bft) 95,74 %
21.03.2016 02:38 5,7 C 5,6 C 4,4 C 95 % 15 lf 1018,9 hPa 0,0 l/m 0 min 0 min 0 W/m 12,6 km/h (3 Bft) 97,87 %
21.03.2016 02:40 5,7 C 5,6 C 4,4 C 95 % 15 lf 1018,8 hPa 0,0 l/m 0 min 0 min 0 W/m 8,4 km/h (2 Bft) 95,74 %
21.03.2016 02:42 5,7 C 5,6 C 4,4 C 95 % 15 lf 1018,8 hPa 0,0 l/m 0 min 0 min 0 W/m 10,5 km/h (2 Bft) 97,83 %
21.03.2016 02:44 5,7 C 5,6 C 4,4 C 95 % 15 lf 1018,8 hPa 0,0 l/m 0 min 0 min 0 W/m 6,3 km/h (2 Bft) 97,87 %
21.03.2016 02:46 5,7 C 5,6 C 4,4 C 95 % 15 lf 1018,8 hPa 0,0 l/m 0 min 0 min 0 W/m 12,6 km/h (3 Bft) 100,00 %
21.03.2016 02:48 5,7 C 5,6 C 4,4 C 95 % 15 lf 1018,9 hPa 0,0 l/m 0 min 0 min 0 W/m 6,3 km/h (2 Bft) 93,62 %
21.03.2016 02:50 5,7 C 5,6 C 4,4 C 95 % 15 lf 1018,8 hPa 0,0 l/m 0 min 0 min 0 W/m 8,4 km/h (2 Bft) 97,87 %
21.03.2016 02:52 5,7 C 5,6 C 4,4 C 95 % 15 lf 1018,8 hPa 0,0 l/m 0 min 0 min 0 W/m 10,5 km/h (2 Bft) 97,87 %
21.03.2016 02:54 5,7 C 5,6 C 4,4 C 95 % 15 lf 1018,8 hPa 0,0 l/m 0 min 0 min 0 W/m 10,5 km/h (2 Bft) 100,00 %
21.03.2016 02:56 5,7 C 5,6 C 4,4 C 95 % 15 lf 1018,8 hPa 0,0 l/m 0 min 0 min 0 W/m 14,6 km/h (3 Bft) 96,55 %
21.03.2016 02:58 5,7 C 5,6 C 4,4 C 95 % 15 lf 1018,7 hPa 0,0 l/m 0 min 0 min 0 W/m 14,6 km/h (3 Bft) 93,62 %
21.03.2016 03:00 5,7 C 5,6 C 4,4 C 95 % 15 lf 1018,7 hPa 0,0 l/m 0 min 0 min 0 W/m 12,6 km/h (3 Bft) 95,74 %
21.03.2016 03:02 5,7 C 5,6 C 3,9 C 95 % 15 lf 1018,7 hPa 0,0 l/m 0 min 0 min 0 W/m 12,6 km/h (3 Bft) 94,29 %
21.03.2016 03:04 5,7 C 5,6 C 3,9 C 95 % 15 lf 1018,7 hPa 0,0 l/m 0 min 0 min 0 W/m 12,6 km/h (3 Bft) 91,49 %
21.03.2016 03:06 5,6 C 5,6 C 3,9 C 95 % 15 lf 1018,8 hPa 0,0 l/m 0 min 0 min 0 W/m 14,6 km/h (3 Bft) 93,62 %
21.03.2016 03:08 5,6 C 5,6 C 3,9 C 95 % 15 lf 1018,7 hPa 0,0 l/m 0 min 0 min 0 W/m 12,6 km/h (3 Bft) 94,23 %
21.03.2016 03:10 5,6 C 5,6 C 3,9 C 95 % 15 lf 1018,7 hPa 0,0 l/m 0 min 0 min 0 W/m 10,5 km/h (2 Bft) 93,62 %
21.03.2016 03:12 5,6 C 5,6 C 3,9 C 95 % 15 lf 1018,8 hPa 0,0 l/m 0 min 0 min 0 W/m 10,5 km/h (2 Bft) 93,62 %
21.03.2016 03:14 5,6 C 5,6 C 3,9 C 95 % 15 lf 1018,7 hPa 0,0 l/m 0 min 0 min 0 W/m 14,6 km/h (3 Bft) 95,74 %
21.03.2016 03:16 5,6 C 5,6 C 3,9 C 95 % 15 lf 1018,7 hPa 0,0 l/m 0 min 0 min 0 W/m 12,6 km/h (3 Bft) 92,68 %
21.03.2016 03:18 5,6 C 5,6 C 3,9 C 95 % 15 lf 1018,8 hPa 0,0 l/m 0 min 0 min 0 W/m 10,5 km/h (2 Bft) 89,36 %
21.03.2016 03:20 5,6 C 5,6 C 3,9 C 95 % 15 lf 1018,7 hPa 0,0 l/m 0 min 0 min 0 W/m 8,4 km/h (2 Bft) 91,49 %
21.03.2016 03:22 5,6 C 5,6 C 3,9 C 95 % 15 lf 1018,7 hPa 0,0 l/m 0 min 0 min 0 W/m 8,4 km/h (2 Bft) 91,30 %
21.03.2016 03:24 5,6 C 5,6 C 3,9 C 95 % 15 lf 1018,7 hPa 0,0 l/m 0 min 0 min 0 W/m 8,4 km/h (2 Bft) 90,57 %
21.03.2016 03:26 5,6 C 5,6 C 3,9 C 95 % 15 lf 1018,7 hPa 0,0 l/m 0 min 0 min 0 W/m 10,5 km/h (2 Bft) 93,62 %
21.03.2016 03:28 5,6 C 5,6 C 3,9 C 95 % 15 lf 1018,7 hPa 0,0 l/m 0 min 0 min 0 W/m 12,6 km/h (3 Bft) 93,62 %
21.03.2016 03:30 5,6 C 5,6 C 3,9 C 95 % 15 lf 1018,7 hPa 0,0 l/m 0 min 0 min 0 W/m 10,5 km/h (2 Bft) 93,62 %
21.03.2016 03:32 5,6 C 5,6 C 3,9 C 96 % 15 lf 1018,7 hPa 0,0 l/m 0 min 0 min 0 W/m 8,4 km/h (2 Bft) 93,62 %
21.03.2016 03:34 5,6 C 5,6 C 3,9 C 96 % 15 lf 1018,7 hPa 0,0 l/m 0 min 0 min 0 W/m 10,5 km/h (2 Bft) 91,49 %
21.03.2016 03:36 5,6 C 5,6 C 3,9 C 96 % 15 lf 1018,7 hPa 0,0 l/m 0 min 0 min 0 W/m 10,5 km/h (2 Bft) 94,23 %
21.03.2016 03:38 5,6 C 5,6 C 4,4 C 96 % 15 lf 1018,7 hPa 0,0 l/m 0 min 0 min 0 W/m 10,5 km/h (2 Bft) 91,49 %
21.03.2016 03:40 5,5 C 5,6 C 3,9 C 96 % 15 lf 1018,7 hPa 0,0 l/m 0 min 0 min 0 W/m 10,5 km/h (2 Bft) 93,62 %
21.03.2016 03:42 5,5 C 5,6 C 3,9 C 96 % 15 lf 1018,7 hPa 0,0 l/m 0 min 0 min 0 W/m 8,4 km/h (2 Bft) 89,13 %
21.03.2016 03:44 5,5 C 5,6 C 3,9 C 96 % 15 lf 1018,7 hPa 0,0 l/m 0 min 0 min 0 W/m 8,4 km/h (2 Bft) 93,62 %
21.03.2016 03:46 5,5 C 5,6 C 3,9 C 96 % 15 lf 1018,7 hPa 0,0 l/m 0 min 0 min 0 W/m 8,4 km/h (2 Bft) 95,74 %
21.03.2016 03:48 5,5 C 5,6 C 3,9 C 96 % 15 lf 1018,7 hPa 0,0 l/m 0 min 0 min 0 W/m 12,6 km/h (3 Bft) 97,87 %
21.03.2016 03:50 5,5 C 5,6 C 3,9 C 96 % 15 lf 1018,6 hPa 0,0 l/m 0 min 0 min 0 W/m 10,5 km/h (2 Bft) 95,74 %
21.03.2016 03:52 5,5 C 5,6 C 3,9 C 96 % 15 lf 1018,7 hPa 0,0 l/m 0 min 0 min 0 W/m 12,6 km/h (3 Bft) 97,87 %
21.03.2016 03:54 5,5 C 5,6 C 3,9 C 96 % 15 lf 1018,7 hPa 0,0 l/m 0 min 0 min 0 W/m 10,5 km/h (2 Bft) 97,83 %
21.03.2016 03:56 5,5 C 5,6 C 3,9 C 96 % 15 lf 1018,6 hPa 0,0 l/m 0 min 0 min 0 W/m 12,6 km/h (3 Bft) 95,74 %
21.03.2016 03:58 5,5 C 5,6 C 3,9 C 96 % 15 lf 1018,6 hPa 0,0 l/m 0 min 0 min 0 W/m 10,5 km/h (2 Bft) 91,49 %
21.03.2016 04:00 5,5 C 5,6 C 3,9 C 96 % 15 lf 1018,6 hPa 0,0 l/m 0 min 0 min 0 W/m 12,6 km/h (3 Bft) 95,74 %
21.03.2016 04:05 5,5 C 5,6 C 3,9 C 95 % 15 lf 1018,5 hPa 0,0 l/m 0 min 0 min 0 W/m 8,4 km/h (2 Bft) 95,24 %
21.03.2016 04:06 5,5 C 5,6 C 3,9 C 95 % 15 lf 1018,6 hPa 0,0 l/m 0 min 0 min 0 W/m 6,3 km/h (2 Bft) 100,00 %
21.03.2016 04:08 5,5 C 5,6 C 3,9 C 95 % 15 lf 1018,6 hPa 0,0 l/m 0 min 0 min 0 W/m 6,3 km/h (2 Bft) 100,00 %
21.03.2016 04:10 5,5 C 5,6 C 3,9 C 95 % 15 lf 1018,6 hPa 0,0 l/m 0 min 0 min 0 W/m 10,5 km/h (2 Bft) 95,74 %
21.03.2016 04:12 5,5 C 5,6 C 3,9 C 96 % 15 lf 1018,6 hPa 0,0 l/m 0 min 0 min 0 W/m 8,4 km/h (2 Bft) 95,74 %
21.03.2016 04:14 5,5 C 5,6 C 3,9 C 96 % 15 lf 1018,5 hPa 0,0 l/m 0 min 0 min 0 W/m 10,5 km/h (2 Bft) 100,00 %
21.03.2016 04:16 5,5 C 5,6 C 3,9 C 96 % 15 lf 1018,5 hPa 0,0 l/m 0 min 2 min 0 W/m 10,5 km/h (2 Bft) 95,74 %
21.03.2016 04:18 5,4 C 5,6 C 3,9 C 96 % 15 lf 1018,5 hPa 0,0 l/m 0 min 0 min 0 W/m 8,4 km/h (2 Bft) 97,87 %
21.03.2016 04:20 5,5 C 5,6 C 3,9 C 96 % 15 lf 1018,5 hPa 0,0 l/m 0 min 0 min 0 W/m 8,4 km/h (2 Bft) 97,83 %
21.03.2016 04:22 5,5 C 5,6 C 3,9 C 96 % 15 lf 1018,5 hPa 0,0 l/m 0 min 0 min 0 W/m 10,5 km/h (2 Bft) 92,45 %
21.03.2016 04:24 5,4 C 5,0 C 3,9 C 96 % 15 lf 1018,5 hPa 0,0 l/m 0 min 0 min 0 W/m 6,3 km/h (2 Bft) 93,62 %
21.03.2016 04:26 5,5 C 5,0 C 3,9 C 96 % 15 lf 1018,5 hPa 0,0 l/m 0 min 0 min 0 W/m 10,5 km/h (2 Bft) 95,74 %
21.03.2016 04:28 5,4 C 5,0 C 3,9 C 96 % 15 lf 1018,5 hPa 0,0 l/m 0 min 0 min 0 W/m 10,5 km/h (2 Bft) 93,62 %
21.03.2016 04:30 5,4 C 5,0 C 3,9 C 96 % 15 lf 1018,5 hPa 0,0 l/m 0 min 0 min 0 W/m 8,4 km/h (2 Bft) 97,83 %
21.03.2016 04:32 5,4 C 5,0 C 3,9 C 96 % 15 lf 1018,6 hPa 0,0 l/m 0 min 0 min 0 W/m 8,4 km/h (2 Bft) 97,92 %
21.03.2016 04:34 5,4 C 5,0 C 3,9 C 96 % 15 lf 1018,5 hPa 0,0 l/m 0 min 0 min 0 W/m 8,4 km/h (2 Bft) 97,87 %
21.03.2016 04:36 5,4 C 5,0 C 3,9 C 96 % 15 lf 1018,6 hPa 0,0 l/m 0 min 0 min 0 W/m 8,4 km/h (2 Bft) 96,15 %
21.03.2016 04:38 5,4 C 5,0 C 3,9 C 96 % 15 lf 1018,5 hPa 0,0 l/m 0 min 0 min 0 W/m 8,4 km/h (2 Bft) 93,62 %
21.03.2016 04:40 5,4 C 5,0 C 3,9 C 96 % 15 lf 1018,6 hPa 0,0 l/m 0 min 0 min 0 W/m 12,6 km/h (3 Bft) 97,83 %
21.03.2016 04:42 5,4 C 5,0 C 3,9 C 96 % 15 lf 1018,5 hPa 0,0 l/m 0 min 0 min 0 W/m 12,6 km/h (3 Bft) 95,74 %
21.03.2016 04:44 5,4 C 5,0 C 3,9 C 96 % 15 lf 1018,5 hPa 0,0 l/m 0 min 0 min 0 W/m 10,5 km/h (2 Bft) 93,62 %
21.03.2016 04:46 5,4 C 5,6 C 3,9 C 96 % 15 lf 1018,5 hPa 0,0 l/m 0 min 0 min 0 W/m 12,6 km/h (3 Bft) 95,74 %
21.03.2016 04:48 5,4 C 5,6 C 3,9 C 96 % 15 lf 1018,5 hPa 0,0 l/m 0 min 0 min 0 W/m 10,5 km/h (2 Bft) 95,74 %
21.03.2016 04:50 5,4 C 5,6 C 3,9 C 96 % 15 lf 1018,6 hPa 0,0 l/m 0 min 0 min 0 W/m 14,6 km/h (3 Bft) 97,87 %
21.03.2016 04:52 5,4 C 5,6 C 3,9 C 96 % 15 lf 1018,6 hPa 0,0 l/m 0 min 0 min 0 W/m 12,6 km/h (3 Bft) 95,65 %
21.03.2016 04:54 5,4 C 5,6 C 3,9 C 96 % 15 lf 1018,6 hPa 0,0 l/m 0 min 0 min 0 W/m 8,4 km/h (2 Bft) 95,74 %
21.03.2016 04:56 5,4 C 5,6 C 3,9 C 96 % 15 lf 1018,5 hPa 0,0 l/m 0 min 0 min 0 W/m 10,5 km/h (2 Bft) 93,62 %
21.03.2016 04:58 5,4 C 5,6 C 3,9 C 96 % 15 lf 1018,5 hPa 0,0 l/m 0 min 0 min 0 W/m 10,5 km/h (2 Bft) 100,00 %
21.03.2016 05:00 5,4 C 5,6 C 3,9 C 96 % 15 lf 1018,5 hPa 0,0 l/m 0 min 0 min 0 W/m 12,6 km/h (3 Bft) 97,87 %
21.03.2016 05:02 5,4 C 5,6 C 3,9 C 96 % 15 lf 1018,5 hPa 0,0 l/m 0 min 0 min 0 W/m 12,6 km/h (3 Bft) 100,00 %
21.03.2016 05:04 5,4 C 5,6 C 3,9 C 96 % 15 lf 1018,5 hPa 0,0 l/m 0 min 0 min 0 W/m 6,3 km/h (2 Bft) 95,74 %
21.03.2016 05:06 5,4 C 5,0 C 3,9 C 96 % 15 lf 1018,5 hPa 0,0 l/m 0 min 0 min 0 W/m 8,4 km/h (2 Bft) 95,74 %
21.03.2016 05:08 5,4 C 5,0 C 3,9 C 96 % 15 lf 1018,5 hPa 0,0 l/m 0 min 0 min 0 W/m 8,4 km/h (2 Bft) 97,87 %
21.03.2016 05:10 5,4 C 5,0 C 3,9 C 96 % 15 lf 1018,6 hPa 0,0 l/m 0 min 0 min 0 W/m 8,4 km/h (2 Bft) 97,87 %
21.03.2016 05:12 5,4 C 5,0 C 3,9 C 96 % 15 lf 1018,5 hPa 0,0 l/m 0 min 0 min 0 W/m 10,5 km/h (2 Bft) 97,87 %
21.03.2016 05:14 5,4 C 5,6 C 3,9 C 96 % 15 lf 1018,5 hPa 0,0 l/m 0 min 0 min 0 W/m 12,6 km/h (3 Bft) 95,65 %
21.03.2016 05:16 5,4 C 5,6 C 3,9 C 96 % 15 lf 1018,4 hPa 0,0 l/m 0 min 0 min 0 W/m 12,6 km/h (3 Bft) 97,87 %
21.03.2016 05:18 5,4 C 5,0 C 3,9 C 96 % 15 lf 1018,4 hPa 0,0 l/m 0 min 0 min 0 W/m 8,4 km/h (2 Bft) 93,62 %
21.03.2016 05:20 5,4 C 5,0 C 3,9 C 96 % 15 lf 1018,4 hPa 0,0 l/m 0 min 0 min 0 W/m 12,6 km/h (3 Bft) 97,87 %
21.03.2016 05:22 5,4 C 5,0 C 3,9 C 96 % 15 lf 1018,5 hPa 0,0 l/m 0 min 0 min 0 W/m 8,4 km/h (2 Bft) 97,87 %
21.03.2016 05:24 5,4 C 5,0 C 3,9 C 96 % 15 lf 1018,4 hPa 0,0 l/m 0 min 0 min 0 W/m 12,6 km/h (3 Bft) 95,74 %
21.03.2016 05:26 5,4 C 5,0 C 3,9 C 96 % 15 lf 1018,5 hPa 0,0 l/m 0 min 0 min 0 W/m 8,4 km/h (2 Bft) 95,65 %
21.03.2016 05:28 5,4 C 5,0 C 3,9 C 96 % 15 lf 1018,5 hPa 0,0 l/m 0 min 0 min 0 W/m 12,6 km/h (3 Bft) 97,87 %
21.03.2016 05:30 5,4 C 5,0 C 3,9 C 96 % 15 lf 1018,5 hPa 0,0 l/m 0 min 0 min 0 W/m 10,5 km/h (2 Bft) 95,74 %
21.03.2016 05:32 5,4 C 5,0 C 3,9 C 96 % 15 lf 1018,5 hPa 0,0 l/m 0 min 0 min 0 W/m 8,4 km/h (2 Bft) 100,00 %
21.03.2016 05:34 5,4 C 5,0 C 3,9 C 96 % 15 lf 1018,5 hPa 0,0 l/m 0 min 0 min 0 W/m 6,3 km/h (2 Bft) 97,87 %
21.03.2016 05:36 5,4 C 5,0 C 3,9 C 96 % 15 lf 1018,5 hPa 0,0 l/m 0 min 0 min 0 W/m 8,4 km/h (2 Bft) 94,64 %
21.03.2016 05:38 5,4 C 5,0 C 3,9 C 96 % 15 lf 1018,6 hPa 0,0 l/m 0 min 0 min 0 W/m 10,5 km/h (2 Bft) 100,00 %
21.03.2016 05:40 5,4 C 5,6 C 3,9 C 96 % 15 lf 1018,6 hPa 0,0 l/m 0 min 0 min 0 W/m 10,5 km/h (2 Bft) 100,00 %
21.03.2016 05:42 5,4 C 5,6 C 3,9 C 96 % 15 lf 1018,6 hPa 0,0 l/m 0 min 0 min 0 W/m 16,7 km/h (3 Bft) 100,00 %
21.03.2016 05:44 5,4 C 5,0 C 3,9 C 96 % 15 lf 1018,6 hPa 0,0 l/m 0 min 0 min 0 W/m 10,5 km/h (2 Bft) 100,00 %
21.03.2016 05:46 5,4 C 5,6 C 3,9 C 96 % 15 lf 1018,6 hPa 0,0 l/m 0 min 0 min 0 W/m 12,6 km/h (3 Bft) 97,87 %
21.03.2016 05:48 5,4 C 5,6 C 3,9 C 96 % 15 lf 1018,7 hPa 0,0 l/m 0 min 0 min 0 W/m 14,6 km/h (3 Bft) 100,00 %
21.03.2016 05:50 5,4 C 5,6 C 3,9 C 96 % 15 lf 1018,7 hPa 0,0 l/m 0 min 0 min 0 W/m 10,5 km/h (2 Bft) 100,00 %
21.03.2016 05:52 5,4 C 5,0 C 3,9 C 96 % 15 lf 1018,7 hPa 0,0 l/m 0 min 0 min 0 W/m 8,4 km/h (2 Bft) 95,74 %
21.03.2016 05:54 5,4 C 5,0 C 3,9 C 96 % 15 lf 1018,7 hPa 0,0 l/m 0 min 0 min 0 W/m 12,6 km/h (3 Bft) 100,00 %
21.03.2016 05:56 5,4 C 5,0 C 3,9 C 96 % 15 lf 1018,8 hPa 0,0 l/m 0 min 0 min 0 W/m 8,4 km/h (2 Bft) 97,87 %
21.03.2016 05:58 5,4 C 5,0 C 3,9 C 96 % 15 lf 1018,7 hPa 0,0 l/m 0 min 0 min 0 W/m 10,5 km/h (2 Bft) 100,00 %
21.03.2016 06:00 5,4 C 5,0 C 3,9 C 96 % 15 lf 1018,7 hPa 0,0 l/m 0 min 0 min 0 W/m 10,5 km/h (2 Bft) 100,00 %
21.03.2016 06:02 5,4 C 5,0 C 3,9 C 96 % 15 lf 1018,7 hPa 0,0 l/m 0 min 0 min 0 W/m 8,4 km/h (2 Bft) 100,00 %
21.03.2016 06:04 5,4 C 5,0 C 3,9 C 96 % 15 lf 1018,8 hPa 0,0 l/m 0 min 0 min 0 W/m 10,5 km/h (2 Bft) 100,00 %
21.03.2016 06:06 5,4 C 5,0 C 3,9 C 96 % 15 lf 1018,8 hPa 0,0 l/m 0 min 0 min 0 W/m 8,4 km/h (2 Bft) 100,00 %
21.03.2016 06:08 5,4 C 5,0 C 3,9 C 96 % 15 lf 1018,8 hPa 0,0 l/m 0 min 0 min 0 W/m 8,4 km/h (2 Bft) 97,87 %
21.03.2016 06:10 5,4 C 5,6 C 3,9 C 96 % 15 lf 1018,7 hPa 0,0 l/m 0 min 0 min 0 W/m 6,3 km/h (2 Bft) 95,74 %
21.03.2016 06:12 5,4 C 5,6 C 3,9 C 96 % 15 lf 1018,8 hPa 0,0 l/m 0 min 0 min 0 W/m 6,3 km/h (2 Bft) 93,48 %
21.03.2016 06:14 5,4 C 5,6 C 3,9 C 96 % 15 lf 1018,8 hPa 0,0 l/m 0 min 0 min 0 W/m 12,6 km/h (3 Bft) 97,87 %
21.03.2016 06:16 5,4 C 5,6 C 3,9 C 96 % 15 lf 1018,8 hPa 0,0 l/m 0 min 0 min 0 W/m 8,4 km/h (2 Bft) 97,87 %
21.03.2016 06:18 5,4 C 5,6 C 3,9 C 96 % 15 lf 1018,8 hPa 0,0 l/m 0 min 0 min 0 W/m 10,5 km/h (2 Bft) 97,87 %
21.03.2016 06:20 5,4 C 5,6 C 3,9 C 96 % 15 lf 1018,8 hPa 0,0 l/m 0 min 0 min 0 W/m 10,5 km/h (2 Bft) 95,92 %
21.03.2016 06:22 5,4 C 5,6 C 3,9 C 96 % 15 lf 1018,8 hPa 0,0 l/m 0 min 0 min 0 W/m 10,5 km/h (2 Bft) 97,87 %
21.03.2016 06:24 5,4 C 5,6 C 3,9 C 96 % 15 lf 1018,8 hPa 0,0 l/m 0 min 0 min 0 W/m 8,4 km/h (2 Bft) 97,83 %
21.03.2016 06:26 5,4 C 5,6 C 3,9 C 96 % 15 lf 1018,8 hPa 0,0 l/m 0 min 0 min 0 W/m 8,4 km/h (2 Bft) 95,74 %
21.03.2016 06:28 5,4 C 5,6 C 3,9 C 96 % 15 lf 1018,8 hPa 0,0 l/m 0 min 0 min 0 W/m 12,6 km/h (3 Bft) 97,87 %
21.03.2016 06:30 5,4 C 5,6 C 3,9 C 96 % 15 lf 1018,9 hPa 0,0 l/m 0 min 0 min 0 W/m 10,5 km/h (2 Bft) 95,74 %
21.03.2016 06:32 5,4 C 5,6 C 3,9 C 96 % 15 lf 1018,9 hPa 0,0 l/m 0 min 0 min 0 W/m 10,5 km/h (2 Bft) 97,22 %
21.03.2016 06:34 5,4 C 5,6 C 3,9 C 96 % 15 lf 1018,9 hPa 0,0 l/m 0 min 0 min 0 W/m 10,5 km/h (2 Bft) 95,74 %
21.03.2016 06:36 5,4 C 5,6 C 3,9 C 96 % 15 lf 1018,9 hPa 0,0 l/m 0 min 0 min 0 W/m 12,6 km/h (3 Bft) 95,74 %
21.03.2016 06:38 5,4 C 5,6 C 3,9 C 96 % 15 lf 1018,9 hPa 0,0 l/m 0 min 0 min 0 W/m 8,4 km/h (2 Bft) 95,65 %
21.03.2016 06:40 5,4 C 5,6 C 4,4 C 96 % 15 lf 1019,0 hPa 0,0 l/m 0 min 0 min 0 W/m 8,4 km/h (2 Bft) 100,00 %
21.03.2016 06:42 5,4 C 5,6 C 4,4 C 96 % 15 lf 1019,0 hPa 0,0 l/m 0 min 0 min 0 W/m 8,4 km/h (2 Bft) 95,74 %
21.03.2016 06:44 5,4 C 5,6 C 4,4 C 96 % 15 lf 1019,0 hPa 0,0 l/m 0 min 0 min 5 W/m 10,5 km/h (2 Bft) 93,62 %
21.03.2016 06:46 5,4 C 5,6 C 4,4 C 96 % 15 lf 1019,0 hPa 0,0 l/m 0 min 0 min 6 W/m 8,4 km/h (2 Bft) 95,74 %
21.03.2016 06:48 5,4 C 5,6 C 4,4 C 96 % 15 lf 1019,0 hPa 0,0 l/m 0 min 0 min 6 W/m 6,3 km/h (2 Bft) 97,87 %
21.03.2016 06:50 5,4 C 5,6 C 4,4 C 96 % 15 lf 1019,0 hPa 0,0 l/m 0 min 0 min 6 W/m 6,3 km/h (2 Bft) 92,31 %
21.03.2016 06:52 5,4 C 5,6 C 4,4 C 96 % 15 lf 1019,1 hPa 0,0 l/m 0 min 0 min 7 W/m 6,3 km/h (2 Bft) 91,49 %
21.03.2016 06:54 5,4 C 5,6 C 4,4 C 96 % 15 lf 1019,1 hPa 0,0 l/m 0 min 0 min 7 W/m 6,3 km/h (2 Bft) 91,49 %
21.03.2016 06:56 5,4 C 5,6 C 4,4 C 96 % 15 lf 1019,2 hPa 0,0 l/m 0 min 0 min 7 W/m 6,3 km/h (2 Bft) 89,36 %
21.03.2016 06:58 5,4 C 5,6 C 4,4 C 96 % 15 lf 1019,1 hPa 0,0 l/m 0 min 0 min 8 W/m 6,3 km/h (2 Bft) 91,49 %
21.03.2016 07:00 5,4 C 5,6 C 4,4 C 96 % 15 lf 1019,2 hPa 0,0 l/m 0 min 0 min 10 W/m 8,4 km/h (2 Bft) 93,48 %
21.03.2016 07:02 5,4 C 5,6 C 4,4 C 96 % 15 lf 1019,1 hPa 0,0 l/m 0 min 0 min 12 W/m 4,2 km/h (1 Bft) 90,24 %
21.03.2016 07:04 5,4 C 5,6 C 4,4 C 96 % 15 lf 1019,1 hPa 0,0 l/m 0 min 0 min 12 W/m 6,3 km/h (2 Bft) 93,62 %
21.03.2016 07:06 5,4 C 5,6 C 4,4 C 96 % 15 lf 1019,2 hPa 0,0 l/m 0 min 0 min 13 W/m 4,2 km/h (1 Bft) 90,57 %
21.03.2016 07:08 5,5 C 5,6 C 4,4 C 96 % 15 lf 1019,0 hPa 0,0 l/m 0 min 0 min 15 W/m 4,2 km/h (1 Bft) 82,98 %
21.03.2016 07:10 5,5 C 5,6 C 4,4 C 96 % 15 lf 1019,1 hPa 0,0 l/m 0 min 0 min 18 W/m 6,3 km/h (2 Bft) 90,24 %
21.03.2016 07:12 5,5 C 5,6 C 4,4 C 96 % 15 lf 1019,1 hPa 0,0 l/m 0 min 0 min 20 W/m 8,4 km/h (2 Bft) 91,49 %
21.03.2016 07:14 5,5 C 5,6 C 4,4 C 96 % 15 lf 1019,1 hPa 0,0 l/m 0 min 0 min 21 W/m 8,4 km/h (2 Bft) 93,48 %
21.03.2016 07:16 5,5 C 5,6 C 4,4 C 96 % 15 lf 1019,0 hPa 0,0 l/m 0 min 0 min 24 W/m 10,5 km/h (2 Bft) 91,49 %
21.03.2016 07:18 5,5 C 5,6 C 4,4 C 96 % 15 lf 1019,1 hPa 0,0 l/m 0 min 0 min 26 W/m 6,3 km/h (2 Bft) 87,23 %
21.03.2016 07:20 5,5 C 5,6 C 4,4 C 96 % 15 lf 1019,1 hPa 0,0 l/m 0 min 0 min 28 W/m 10,5 km/h (2 Bft) 96,23 %
21.03.2016 07:22 5,6 C 6,1 C 4,4 C 96 % 15 lf 1019,1 hPa 0,0 l/m 0 min 0 min 32 W/m 6,3 km/h (2 Bft) 93,62 %
21.03.2016 07:24 5,6 C 6,1 C 4,4 C 96 % 15 lf 1019,1 hPa 0,0 l/m 0 min 0 min 33 W/m 4,2 km/h (1 Bft) 93,48 %
21.03.2016 07:26 5,6 C 6,1 C 4,4 C 96 % 15 lf 1019,0 hPa 0,0 l/m 0 min 0 min 35 W/m 6,3 km/h (2 Bft) 95,74 %
21.03.2016 07:28 5,6 C 6,1 C 4,4 C 96 % 15 lf 1019,0 hPa 0,0 l/m 0 min 0 min 36 W/m 4,2 km/h (1 Bft) 95,74 %
21.03.2016 07:30 5,6 C 6,1 C 4,4 C 96 % 15 lf 1019,1 hPa 0,0 l/m 0 min 0 min 38 W/m 4,2 km/h (1 Bft) 91,49 %
21.03.2016 07:32 5,6 C 6,1 C 4,4 C 96 % 15 lf 1019,1 hPa 0,0 l/m 0 min 0 min 40 W/m 8,4 km/h (2 Bft) 95,83 %
21.03.2016 07:34 5,6 C 6,1 C 4,4 C 96 % 15 lf 1019,2 hPa 0,0 l/m 0 min 0 min 43 W/m 8,4 km/h (2 Bft) 93,62 %
21.03.2016 07:36 5,6 C 6,1 C 4,4 C 96 % 15 lf 1019,1 hPa 0,0 l/m 0 min 0 min 48 W/m 6,3 km/h (2 Bft) 95,92 %
21.03.2016 07:38 5,6 C 6,1 C 5,0 C 96 % 15 lf 1019,1 hPa 0,0 l/m 0 min 0 min 53 W/m 8,4 km/h (2 Bft) 95,74 %
21.03.2016 07:40 5,7 C 6,1 C 5,0 C 96 % 15 lf 1019,1 hPa 0,0 l/m 0 min 0 min 51 W/m 6,3 km/h (2 Bft) 97,87 %
21.03.2016 07:42 5,7 C 6,1 C 5,0 C 96 % 15 lf 1019,2 hPa 0,0 l/m 0 min 0 min 52 W/m 8,4 km/h (2 Bft) 95,74 %
21.03.2016 07:44 5,7 C 6,7 C 5,0 C 96 % 15 lf 1019,2 hPa 0,0 l/m 0 min 0 min 59 W/m 10,5 km/h (2 Bft) 97,87 %
21.03.2016 07:46 5,7 C 6,7 C 5,0 C 96 % 15 lf 1019,2 hPa 0,0 l/m 0 min 0 min 63 W/m 6,3 km/h (2 Bft) 93,48 %
21.03.2016 07:48 5,7 C 6,7 C 5,0 C 97 % 15 lf 1019,2 hPa 0,0 l/m 0 min 0 min 69 W/m 4,2 km/h (1 Bft) 97,87 %
21.03.2016 07:50 5,8 C 6,7 C 5,0 C 97 % 15 lf 1019,2 hPa 0,0 l/m 0 min 0 min 74 W/m 8,4 km/h (2 Bft) 97,87 %
21.03.2016 07:52 5,8 C 6,7 C 5,0 C 97 % 14 lf 1019,1 hPa 0,0 l/m 0 min 0 min 71 W/m 8,4 km/h (2 Bft) 97,87 %
21.03.2016 07:54 5,8 C 6,7 C 5,0 C 97 % 13 lf 1019,1 hPa 0,0 l/m 0 min 0 min 75 W/m 10,5 km/h (2 Bft) 95,74 %
21.03.2016 07:56 5,8 C 6,7 C 5,0 C 97 % 12 lf 1019,2 hPa 0,0 l/m 0 min 0 min 60 W/m 8,4 km/h (2 Bft) 97,87 %
21.03.2016 07:58 5,9 C 6,7 C 5,0 C 97 % 10 lf 1019,2 hPa 0,0 l/m 0 min 0 min 42 W/m 12,6 km/h (3 Bft) 95,65 %
21.03.2016 08:00 5,9 C 6,7 C 5,0 C 97 % 7 lf 1019,2 hPa 0,0 l/m 0 min 0 min 51 W/m 10,5 km/h (2 Bft) 100,00 %
21.03.2016 08:02 5,9 C 6,7 C 5,0 C 97 % 4 lf 1019,3 hPa 0,0 l/m 0 min 0 min 45 W/m 14,6 km/h (3 Bft) 100,00 %
21.03.2016 08:04 5,9 C 6,7 C 5,0 C 97 % 3 lf 1019,2 hPa 0,0 l/m 0 min 0 min 59 W/m 10,5 km/h (2 Bft) 100,00 %
21.03.2016 08:06 5,9 C 6,7 C 5,0 C 97 % 2 lf 1019,2 hPa 0,0 l/m 0 min 0 min 72 W/m 16,7 km/h (3 Bft) 95,92 %
21.03.2016 08:08 6,0 C 6,7 C 5,0 C 97 % 2 lf 1019,2 hPa 0,0 l/m 0 min 0 min 58 W/m 18,8 km/h (3 Bft) 95,74 %
21.03.2016 08:10 6,0 C 6,7 C 5,0 C 97 % 1 lf 1019,1 hPa 0,0 l/m 0 min 0 min 66 W/m 14,6 km/h (3 Bft) 100,00 %
21.03.2016 08:12 6,0 C 6,7 C 5,6 C 97 % 1 lf 1019,1 hPa 0,0 l/m 0 min 0 min 86 W/m 12,6 km/h (3 Bft) 100,00 %
21.03.2016 08:14 6,1 C 6,7 C 5,6 C 97 % 1 lf 1019,1 hPa 0,0 l/m 0 min 0 min 72 W/m 12,6 km/h (3 Bft) 100,00 %
21.03.2016 08:16 6,1 C 6,7 C 5,0 C 97 % 1 lf 1019,2 hPa 0,0 l/m 0 min 0 min 65 W/m 14,6 km/h (3 Bft) 100,00 %
21.03.2016 08:18 6,1 C 6,7 C 5,0 C 97 % 1 lf 1019,2 hPa 0,0 l/m 0 min 0 min 53 W/m 10,5 km/h (2 Bft) 93,62 %
21.03.2016 08:20 6,1 C 6,7 C 5,0 C 97 % 1 lf 1019,2 hPa 0,0 l/m 0 min 0 min 51 W/m 10,5 km/h (2 Bft) 98,28 %
21.03.2016 08:22 6,1 C 6,7 C 5,0 C 97 % 1 lf 1019,3 hPa 0,0 l/m 0 min 0 min 54 W/m 10,5 km/h (2 Bft) 97,87 %
21.03.2016 08:24 6,2 C 6,7 C 5,6 C 97 % 1 lf 1019,3 hPa 0,0 l/m 0 min 0 min 50 W/m 10,5 km/h (2 Bft) 97,87 %
21.03.2016 08:26 6,2 C 6,7 C 5,0 C 97 % 1 lf 1019,2 hPa 0,0 l/m 0 min 0 min 54 W/m 16,7 km/h (3 Bft) 97,14 %
21.03.2016 08:28 6,2 C 6,7 C 5,6 C 97 % 1 lf 1019,3 hPa 0,0 l/m 0 min 0 min 65 W/m 8,4 km/h (2 Bft) 96,61 %
21.03.2016 08:30 6,2 C 6,7 C 5,6 C 97 % 1 lf 1019,3 hPa 0,0 l/m 0 min 0 min 67 W/m 10,5 km/h (2 Bft) 97,14 %
21.03.2016 08:32 6,2 C 7,2 C 5,6 C 97 % 1 lf 1019,3 hPa 0,0 l/m 0 min 0 min 80 W/m 12,6 km/h (3 Bft) 100,00 %
21.03.2016 08:34 6,2 C 7,2 C 5,6 C 97 % 1 lf 1019,3 hPa 0,0 l/m 0 min 0 min 99 W/m 18,8 km/h (3 Bft) 100,00 %
21.03.2016 08:36 6,3 C 7,2 C 5,6 C 97 % 0 lf 1019,3 hPa 0,0 l/m 0 min 0 min 108 W/m 20,9 km/h (4 Bft) 100,00 %
21.03.2016 08:38 6,3 C 7,2 C 5,6 C 97 % 0 lf 1019,2 hPa 0,0 l/m 0 min 0 min 107 W/m 16,7 km/h (3 Bft) 97,87 %
21.03.2016 08:40 6,3 C 7,2 C 5,6 C 97 % 0 lf 1019,3 hPa 0,0 l/m 0 min 0 min 105 W/m 12,6 km/h (3 Bft) 91,49 %
21.03.2016 08:42 6,3 C 7,8 C 5,6 C 97 % 0 lf 1019,3 hPa 0,0 l/m 0 min 0 min 112 W/m 12,6 km/h (3 Bft) 93,62 %
21.03.2016 08:44 6,4 C 7,8 C 5,6 C 97 % 0 lf 1019,3 hPa 0,0 l/m 0 min 0 min 120 W/m 14,6 km/h (3 Bft) 95,74 %
21.03.2016 08:46 6,4 C 7,8 C 6,1 C 97 % 0 lf 1019,3 hPa 0,0 l/m 0 min 0 min 123 W/m 12,6 km/h (3 Bft) 95,74 %
21.03.2016 08:48 6,4 C 7,8 C 5,6 C 97 % 0 lf 1019,4 hPa 0,0 l/m 0 min 0 min 130 W/m 12,6 km/h (3 Bft) 95,65 %
21.03.2016 08:50 6,4 C 7,8 C 6,1 C 97 % 0 lf 1019,4 hPa 0,0 l/m 0 min 0 min 136 W/m 14,6 km/h (3 Bft) 98,11 %
21.03.2016 08:52 6,4 C 7,8 C 5,6 C 97 % 0 lf 1019,4 hPa 0,0 l/m 0 min 0 min 146 W/m 12,6 km/h (3 Bft) 93,75 %
21.03.2016 08:54 6,4 C 7,8 C 6,1 C 97 % 0 lf 1019,4 hPa 0,0 l/m 0 min 0 min 170 W/m 14,6 km/h (3 Bft) 95,74 %
21.03.2016 08:56 6,4 C 8,3 C 6,1 C 97 % 0 lf 1019,4 hPa 0,0 l/m 0 min 0 min 169 W/m 10,5 km/h (2 Bft) 93,62 %
21.03.2016 08:58 6,4 C 8,3 C 6,1 C 97 % 0 lf 1019,4 hPa 0,0 l/m 0 min 0 min 172 W/m 14,6 km/h (3 Bft) 97,83 %
21.03.2016 09:00 6,5 C 8,3 C 6,1 C 97 % 0 lf 1019,4 hPa 0,0 l/m 0 min 0 min 177 W/m 14,6 km/h (3 Bft) 93,62 %
21.03.2016 09:02 6,6 C 8,9 C 6,1 C 97 % 0 lf 1019,4 hPa 0,0 l/m 2 min 0 min 183 W/m 14,6 km/h (3 Bft) 97,87 %
21.03.2016 09:04 6,6 C 8,9 C 6,7 C 97 % 0 lf 1019,4 hPa 0,0 l/m 2 min 0 min 186 W/m 10,5 km/h (2 Bft) 97,87 %
21.03.2016 09:06 6,6 C 9,4 C 6,7 C 97 % 0 lf 1019,4 hPa 0,0 l/m 0 min 0 min 183 W/m 14,6 km/h (3 Bft) 94,00 %
21.03.2016 09:08 6,6 C 8,9 C 6,7 C 97 % 0 lf 1019,4 hPa 0,0 l/m 0 min 0 min 176 W/m 16,7 km/h (3 Bft) 97,83 %
21.03.2016 09:10 6,7 C 8,3 C 6,1 C 97 % 0 lf 1019,4 hPa 0,0 l/m 0 min 0 min 180 W/m 18,8 km/h (3 Bft) 97,87 %
21.03.2016 09:12 6,7 C 8,3 C 6,1 C 97 % 0 lf 1019,4 hPa 0,0 l/m 0 min 0 min 178 W/m 16,7 km/h (3 Bft) 95,74 %
21.03.2016 09:14 6,7 C 8,9 C 6,7 C 97 % 0 lf 1019,4 hPa 0,0 l/m 0 min 0 min 171 W/m 10,5 km/h (2 Bft) 95,74 %
21.03.2016 09:16 6,7 C 8,3 C 6,1 C 97 % 0 lf 1019,4 hPa 0,0 l/m 0 min 0 min 165 W/m 16,7 km/h (3 Bft) 89,36 %
21.03.2016 09:18 6,7 C 8,3 C 6,1 C 97 % 0 lf 1019,5 hPa 0,0 l/m 0 min 0 min 169 W/m 16,7 km/h (3 Bft) 97,87 %
21.03.2016 09:20 6,8 C 8,9 C 6,7 C 97 % 0 lf 1019,5 hPa 0,0 l/m 0 min 0 min 184 W/m 14,6 km/h (3 Bft) 93,48 %
21.03.2016 09:22 6,8 C 8,9 C 6,7 C 96 % 0 lf 1019,5 hPa 0,0 l/m 0 min 0 min 187 W/m 10,5 km/h (2 Bft) 95,74 %
21.03.2016 09:24 6,8 C 8,9 C 6,7 C 97 % 0 lf 1019,5 hPa 0,0 l/m 0 min 0 min 179 W/m 12,6 km/h (3 Bft) 97,87 %
21.03.2016 09:26 6,9 C 8,9 C 6,1 C 97 % 0 lf 1019,5 hPa 0,0 l/m 0 min 0 min 178 W/m 10,5 km/h (2 Bft) 93,62 %
21.03.2016 09:28 6,9 C 8,9 C 6,1 C 97 % 0 lf 1019,5 hPa 0,0 l/m 0 min 0 min 179 W/m 14,6 km/h (3 Bft) 95,74 %
21.03.2016 09:30 6,9 C 8,9 C 6,1 C 96 % 0 lf 1019,5 hPa 0,0 l/m 0 min 0 min 195 W/m 10,5 km/h (2 Bft) 97,87 %
21.03.2016 09:32 6,9 C 9,4 C 6,7 C 96 % 0 lf 1019,5 hPa 0,0 l/m 0 min 0 min 212 W/m 12,6 km/h (3 Bft) 93,62 %
21.03.2016 09:34 6,9 C 9,4 C 6,7 C 96 % 0 lf 1019,6 hPa 0,0 l/m 2 min 0 min 218 W/m 14,6 km/h (3 Bft) 97,87 %
21.03.2016 09:36 7,0 C 9,4 C 6,7 C 96 % 0 lf 1019,6 hPa 0,0 l/m 0 min 0 min 216 W/m 12,6 km/h (3 Bft) 91,67 %
21.03.2016 09:38 7,0 C 9,4 C 6,7 C 96 % 0 lf 1019,7 hPa 0,0 l/m 0 min 0 min 207 W/m 16,7 km/h (3 Bft) 93,62 %
21.03.2016 09:40 7,1 C 9,4 C 6,7 C 96 % 0 lf 1019,7 hPa 0,0 l/m 0 min 0 min 199 W/m 14,6 km/h (3 Bft) 94,29 %
21.03.2016 09:42 7,1 C 9,4 C 6,7 C 96 % 0 lf 1019,7 hPa 0,0 l/m 0 min 0 min 200 W/m 16,7 km/h (3 Bft) 95,74 %
21.03.2016 09:44 7,2 C 9,4 C 7,2 C 96 % 0 lf 1019,7 hPa 0,0 l/m 0 min 0 min 200 W/m 16,7 km/h (3 Bft) 95,74 %
21.03.2016 09:46 7,2 C 9,4 C 6,7 C 95 % 0 lf 1019,6 hPa 0,0 l/m 0 min 0 min 202 W/m 16,7 km/h (3 Bft) 93,48 %
21.03.2016 09:48 7,2 C 9,4 C 6,7 C 95 % 0 lf 1019,6 hPa 0,0 l/m 0 min 0 min 220 W/m 20,9 km/h (4 Bft) 93,22 %
21.03.2016 09:50 7,3 C 9,4 C 6,7 C 95 % 0 lf 1019,6 hPa 0,0 l/m 0 min 0 min 223 W/m 16,7 km/h (3 Bft) 93,62 %
21.03.2016 09:52 7,3 C 9,4 C 6,7 C 95 % 0 lf 1019,6 hPa 0,0 l/m 0 min 0 min 216 W/m 16,7 km/h (3 Bft) 93,62 %
21.03.2016 09:54 7,3 C 9,4 C 6,7 C 94 % 0 lf 1019,6 hPa 0,0 l/m 0 min 0 min 220 W/m 20,9 km/h (4 Bft) 94,29 %
21.03.2016 09:56 7,4 C 9,4 C 6,7 C 94 % 0 lf 1019,7 hPa 0,0 l/m 0 min 0 min 223 W/m 16,7 km/h (3 Bft) 93,10 %
21.03.2016 09:58 7,4 C 8,9 C 6,7 C 93 % 0 lf 1019,7 hPa 0,0 l/m 0 min 0 min 207 W/m 27,2 km/h (4 Bft) 93,62 %
21.03.2016 10:00 7,4 C 8,3 C 6,1 C 93 % 0 lf 1019,7 hPa 0,0 l/m 0 min 0 min 195 W/m 23,0 km/h (4 Bft) 91,49 %
21.03.2016 10:02 7,4 C 8,9 C 6,7 C 92 % 0 lf 1019,7 hPa 0,0 l/m 0 min 0 min 192 W/m 16,7 km/h (3 Bft) 94,29 %
21.03.2016 10:04 7,4 C 8,3 C 6,1 C 92 % 0 lf 1019,7 hPa 0,0 l/m 0 min 0 min 171 W/m 18,8 km/h (3 Bft) 95,74 %
21.03.2016 10:06 7,5 C 8,3 C 6,1 C 91 % 4 lf 1019,8 hPa 0,0 l/m 0 min 0 min 95 W/m 29,3 km/h (5 Bft) 98,25 %
21.03.2016 10:08 7,6 C 7,8 C 5,6 C 91 % 15 lf 1019,8 hPa 0,0 l/m 0 min 2 min 59 W/m 23,0 km/h (4 Bft) 93,62 %
21.03.2016 10:10 7,5 C 7,2 C 5,0 C 90 % 15 lf 1019,9 hPa 0,0 l/m 0 min 2 min 68 W/m 25,1 km/h (4 Bft) 97,87 %
21.03.2016 10:12 7,4 C 7,2 C 5,0 C 89 % 15 lf 1019,9 hPa 0,0 l/m 0 min 2 min 83 W/m 25,1 km/h (4 Bft) 95,83 %
21.03.2016 10:14 7,4 C 7,2 C 5,0 C 89 % 15 lf 1019,9 hPa 0,0 l/m 0 min 2 min 100 W/m 16,7 km/h (3 Bft) 97,87 %
21.03.2016 10:16 7,3 C 7,2 C 5,0 C 89 % 15 lf 1019,8 hPa 0,0 l/m 0 min 2 min 119 W/m 12,6 km/h (3 Bft) 93,62 %
21.03.2016 10:18 7,3 C 7,2 C 5,0 C 89 % 15 lf 1019,9 hPa 0,2 l/m 0 min 2 min 134 W/m 12,6 km/h (3 Bft) 95,65 %
21.03.2016 10:20 7,2 C 7,2 C 5,0 C 89 % 15 lf 1019,9 hPa 0,0 l/m 0 min 2 min 162 W/m 14,6 km/h (3 Bft) 100,00 %
21.03.2016 10:22 7,2 C 7,8 C 5,6 C 89 % 15 lf 1019,9 hPa 0,0 l/m 0 min 2 min 193 W/m 16,7 km/h (3 Bft) 100,00 %
21.03.2016 10:24 7,2 C 7,8 C 5,6 C 89 % 15 lf 1019,9 hPa 0,0 l/m 0 min 0 min 214 W/m 14,6 km/h (3 Bft) 100,00 %
21.03.2016 10:26 7,2 C 8,3 C 5,6 C 89 % 15 lf 1019,9 hPa 0,0 l/m 0 min 0 min 240 W/m 12,6 km/h (3 Bft) 97,87 %
21.03.2016 10:28 7,2 C 8,9 C 6,1 C 89 % 15 lf 1020,0 hPa 0,0 l/m 2 min 0 min 273 W/m 16,7 km/h (3 Bft) 97,87 %
21.03.2016 10:30 7,2 C 10,0 C 6,7 C 89 % 15 lf 1019,9 hPa 0,0 l/m 2 min 0 min 279 W/m 12,6 km/h (3 Bft) 97,83 %
21.03.2016 10:32 7,3 C 10,6 C 6,7 C 89 % 15 lf 1019,9 hPa 0,0 l/m 2 min 0 min 277 W/m 14,6 km/h (3 Bft) 95,74 %
21.03.2016 10:34 7,3 C 10,6 C 7,2 C 89 % 15 lf 1019,9 hPa 0,0 l/m 2 min 0 min 267 W/m 18,8 km/h (3 Bft) 91,49 %
21.03.2016 10:36 7,4 C 11,1 C 7,2 C 90 % 15 lf 1019,9 hPa 0,0 l/m 2 min 0 min 283 W/m 12,6 km/h (3 Bft) 97,14 %
21.03.2016 10:38 7,5 C 11,1 C 7,2 C 90 % 15 lf 1019,9 hPa 0,0 l/m 2 min 0 min 286 W/m 16,7 km/h (3 Bft) 97,87 %
21.03.2016 10:40 7,6 C 11,7 C 7,2 C 90 % 15 lf 1019,9 hPa 0,0 l/m 2 min 0 min 289 W/m 16,7 km/h (3 Bft) 97,87 %
21.03.2016 10:42 7,6 C 11,7 C 7,8 C 90 % 15 lf 1019,9 hPa 0,0 l/m 2 min 0 min 290 W/m 12,6 km/h (3 Bft) 93,62 %
21.03.2016 10:44 7,7 C 12,2 C 7,2 C 90 % 15 lf 1019,9 hPa 0,0 l/m 2 min 0 min 278 W/m 12,6 km/h (3 Bft) 97,83 %
21.03.2016 10:46 7,7 C 12,2 C 7,2 C 90 % 15 lf 1019,8 hPa 0,0 l/m 2 min 0 min 292 W/m 14,6 km/h (3 Bft) 95,74 %
21.03.2016 10:48 7,7 C 12,2 C 7,2 C 89 % 15 lf 1019,9 hPa 0,0 l/m 2 min 0 min 336 W/m 18,8 km/h (3 Bft) 97,87 %
21.03.2016 10:50 7,8 C 12,8 C 7,8 C 89 % 15 lf 1019,9 hPa 0,0 l/m 2 min 0 min 374 W/m 12,6 km/h (3 Bft) 97,87 %
21.03.2016 10:52 7,8 C 13,3 C 8,3 C 89 % 15 lf 1019,9 hPa 0,0 l/m 2 min 0 min 415 W/m 12,6 km/h (3 Bft) 97,87 %
21.03.2016 10:54 7,9 C 15,0 C 8,9 C 89 % 15 lf 1019,9 hPa 0,0 l/m 2 min 0 min 491 W/m 14,6 km/h (3 Bft) 91,49 %
21.03.2016 10:56 8,1 C 15,6 C 9,4 C 89 % 15 lf 1019,9 hPa 0,0 l/m 2 min 0 min 460 W/m 10,5 km/h (2 Bft) 93,48 %
21.03.2016 10:58 8,2 C 15,6 C 8,9 C 89 % 15 lf 1019,9 hPa 0,0 l/m 2 min 0 min 467 W/m 10,5 km/h (2 Bft) 87,23 %
21.03.2016 11:00 8,3 C 14,4 C 8,9 C 89 % 15 lf 1019,9 hPa 0,0 l/m 2 min 0 min 384 W/m 12,6 km/h (3 Bft) 93,62 %
21.03.2016 11:02 8,3 C 13,3 C 7,8 C 89 % 15 lf 1020,0 hPa 0,0 l/m 2 min 0 min 291 W/m 18,8 km/h (3 Bft) 89,36 %
21.03.2016 11:04 8,3 C 12,2 C 7,2 C 88 % 12 lf 1020,0 hPa 0,0 l/m 0 min 0 min 218 W/m 31,4 km/h (5 Bft) 97,87 %
21.03.2016 11:06 8,3 C 11,1 C 6,7 C 86 % 3 lf 1020,0 hPa 0,0 l/m 0 min 0 min 166 W/m 27,2 km/h (4 Bft) 97,87 %
21.03.2016 11:08 8,3 C 10,0 C 6,7 C 85 % 0 lf 1019,9 hPa 0,0 l/m 0 min 0 min 152 W/m 23,0 km/h (4 Bft) 97,83 %
21.03.2016 11:10 8,3 C 9,4 C 6,7 C 84 % 0 lf 1019,9 hPa 0,0 l/m 0 min 0 min 150 W/m 27,2 km/h (4 Bft) 97,87 %
21.03.2016 11:12 8,3 C 9,4 C 6,7 C 83 % 0 lf 1020,0 hPa 0,0 l/m 0 min 0 min 146 W/m 20,9 km/h (4 Bft) 98,21 %
21.03.2016 11:14 8,2 C 9,4 C 6,7 C 83 % 0 lf 1019,9 hPa 0,0 l/m 0 min 0 min 146 W/m 20,9 km/h (4 Bft) 97,87 %
21.03.2016 11:16 8,2 C 9,4 C 6,7 C 82 % 0 lf 1019,9 hPa 0,0 l/m 0 min 0 min 160 W/m 29,3 km/h (5 Bft) 93,48 %
21.03.2016 11:18 8,2 C 9,4 C 6,7 C 82 % 0 lf 1019,9 hPa 0,0 l/m 0 min 0 min 165 W/m 20,9 km/h (4 Bft) 97,87 %
21.03.2016 11:20 8,2 C 9,4 C 6,7 C 82 % 0 lf 1020,0 hPa 0,0 l/m 0 min 0 min 153 W/m 20,9 km/h (4 Bft) 93,62 %
21.03.2016 11:22 8,2 C 9,4 C 6,7 C 82 % 0 lf 1020,0 hPa 0,0 l/m 0 min 0 min 134 W/m 27,2 km/h (4 Bft) 97,87 %
21.03.2016 11:24 8,2 C 9,4 C 6,7 C 82 % 1 lf 1020,0 hPa 0,0 l/m 0 min 0 min 116 W/m 23,0 km/h (4 Bft) 95,74 %
21.03.2016 11:26 8,2 C 9,4 C 6,7 C 82 % 0 lf 1020,0 hPa 0,0 l/m 0 min 2 min 101 W/m 20,9 km/h (4 Bft) 95,74 %
21.03.2016 11:28 8,2 C 8,9 C 6,1 C 82 % 0 lf 1020,0 hPa 0,0 l/m 0 min 0 min 88 W/m 20,9 km/h (4 Bft) 97,83 %
21.03.2016 11:30 8,2 C 8,9 C 6,1 C 82 % 0 lf 1019,9 hPa 0,0 l/m 0 min 0 min 89 W/m 16,7 km/h (3 Bft) 97,87 %
21.03.2016 11:32 8,2 C 8,9 C 6,7 C 82 % 0 lf 1020,0 hPa 0,0 l/m 0 min 0 min 96 W/m 18,8 km/h (3 Bft) 95,83 %
21.03.2016 11:34 8,2 C 8,9 C 6,7 C 82 % 0 lf 1020,0 hPa 0,0 l/m 0 min 0 min 84 W/m 12,6 km/h (3 Bft) 97,87 %
21.03.2016 11:36 8,1 C 8,9 C 6,1 C 82 % 1 lf 1020,1 hPa 0,0 l/m 0 min 0 min 81 W/m 29,3 km/h (5 Bft) 97,96 %
21.03.2016 11:38 8,1 C 8,3 C 6,1 C 82 % 0 lf 1020,0 hPa 0,0 l/m 0 min 0 min 86 W/m 18,8 km/h (3 Bft) 97,87 %
21.03.2016 11:40 8,1 C 8,3 C 6,1 C 82 % 0 lf 1020,0 hPa 0,0 l/m 0 min 0 min 101 W/m 20,9 km/h (4 Bft) 97,83 %
21.03.2016 11:42 8,0 C 8,3 C 6,1 C 82 % 0 lf 1019,9 hPa 0,0 l/m 0 min 0 min 128 W/m 20,9 km/h (4 Bft) 97,87 %
21.03.2016 11:44 8,0 C 8,9 C 6,7 C 82 % 0 lf 1019,9 hPa 0,0 l/m 0 min 0 min 159 W/m 18,8 km/h (3 Bft) 97,83 %
21.03.2016 11:46 7,9 C 8,9 C 6,7 C 81 % 0 lf 1019,8 hPa 0,0 l/m 0 min 0 min 182 W/m 20,9 km/h (4 Bft) 93,62 %
21.03.2016 11:48 7,9 C 9,4 C 6,7 C 81 % 0 lf 1019,9 hPa 0,0 l/m 0 min 0 min 201 W/m 14,6 km/h (3 Bft) 97,87 %
21.03.2016 11:50 7,9 C 9,4 C 7,2 C 81 % 0 lf 1019,8 hPa 0,0 l/m 0 min 0 min 222 W/m 14,6 km/h (3 Bft) 95,74 %
21.03.2016 11:52 7,9 C 10,0 C 7,2 C 82 % 0 lf 1019,8 hPa 0,0 l/m 0 min 0 min 238 W/m 16,7 km/h (3 Bft) 95,65 %
21.03.2016 11:54 7,9 C 10,0 C 7,8 C 81 % 0 lf 1019,8 hPa 0,0 l/m 0 min 0 min 263 W/m 18,8 km/h (3 Bft) 97,87 %
21.03.2016 11:56 7,9 C 10,0 C 7,8 C 81 % 0 lf 1019,8 hPa 0,0 l/m 0 min 0 min 274 W/m 18,8 km/h (3 Bft) 97,87 %
21.03.2016 11:58 8,0 C 10,6 C 8,3 C 80 % 0 lf 1019,8 hPa 0,0 l/m 0 min 0 min 282 W/m 18,8 km/h (3 Bft) 97,87 %
21.03.2016 12:00 8,0 C 10,6 C 8,3 C 80 % 0 lf 1019,8 hPa 0,0 l/m 0 min 0 min 295 W/m 18,8 km/h (3 Bft) 93,62 %
21.03.2016 12:02 8,1 C 10,6 C 8,3 C 79 % 0 lf 1019,8 hPa 0,0 l/m 0 min 0 min 302 W/m 20,9 km/h (4 Bft) 95,65 %
21.03.2016 12:04 8,1 C 11,1 C 8,9 C 78 % 0 lf 1019,8 hPa 0,0 l/m 0 min 0 min 301 W/m 16,7 km/h (3 Bft) 97,87 %
21.03.2016 12:06 8,1 C 11,1 C 8,3 C 78 % 0 lf 1019,8 hPa 0,0 l/m 0 min 0 min 298 W/m 18,8 km/h (3 Bft) 97,14 %
21.03.2016 12:08 8,2 C 10,6 C 8,3 C 77 % 0 lf 1019,7 hPa 0,0 l/m 0 min 0 min 302 W/m 27,2 km/h (4 Bft) 95,74 %
21.03.2016 12:10 8,2 C 11,1 C 8,3 C 76 % 0 lf 1019,8 hPa 0,0 l/m 0 min 0 min 307 W/m 23,0 km/h (4 Bft) 95,74 %
21.03.2016 12:12 8,3 C 11,1 C 8,9 C 76 % 0 lf 1019,8 hPa 0,0 l/m 0 min 0 min 302 W/m 20,9 km/h (4 Bft) 97,87 %
21.03.2016 12:14 8,3 C 11,1 C 8,9 C 76 % 0 lf 1019,8 hPa 0,0 l/m 0 min 0 min 303 W/m 18,8 km/h (3 Bft) 97,87 %
21.03.2016 12:16 8,3 C 11,7 C 8,9 C 76 % 0 lf 1019,7 hPa 0,0 l/m 2 min 0 min 312 W/m 23,0 km/h (4 Bft) 97,87 %
21.03.2016 12:18 8,4 C 11,7 C 8,9 C 75 % 0 lf 1019,7 hPa 0,0 l/m 0 min 0 min 311 W/m 20,9 km/h (4 Bft) 93,48 %
21.03.2016 12:20 8,4 C 11,7 C 8,9 C 75 % 0 lf 1019,7 hPa 0,0 l/m 0 min 0 min 310 W/m 18,8 km/h (3 Bft) 90,00 %
21.03.2016 12:22 8,4 C 11,7 C 8,9 C 75 % 0 lf 1019,7 hPa 0,0 l/m 0 min 0 min 289 W/m 18,8 km/h (3 Bft) 93,62 %
21.03.2016 12:24 8,5 C 11,7 C 8,9 C 75 % 0 lf 1019,6 hPa 0,0 l/m 0 min 0 min 281 W/m 18,8 km/h (3 Bft) 91,49 %
21.03.2016 12:26 8,5 C 11,7 C 8,9 C 76 % 0 lf 1019,7 hPa 0,0 l/m 0 min 0 min 294 W/m 18,8 km/h (3 Bft) 95,74 %
21.03.2016 12:28 8,6 C 11,7 C 8,9 C 76 % 0 lf 1019,7 hPa 0,0 l/m 2 min 0 min 339 W/m 14,6 km/h (3 Bft) 93,48 %
21.03.2016 12:30 8,6 C 12,8 C 9,4 C 76 % 0 lf 1019,6 hPa 0,0 l/m 2 min 0 min 408 W/m 14,6 km/h (3 Bft) 93,62 %
21.03.2016 12:32 8,7 C 13,3 C 10,0 C 76 % 0 lf 1019,6 hPa 0,0 l/m 2 min 0 min 427 W/m 14,6 km/h (3 Bft) 93,62 %
21.03.2016 12:34 8,7 C 13,3 C 10,0 C 76 % 0 lf 1019,6 hPa 0,0 l/m 2 min 0 min 385 W/m 16,7 km/h (3 Bft) 93,62 %
21.03.2016 12:36 8,8 C 13,3 C 9,4 C 76 % 0 lf 1019,6 hPa 0,0 l/m 2 min 0 min 346 W/m 12,6 km/h (3 Bft) 90,74 %
21.03.2016 12:38 8,8 C 12,8 C 9,4 C 75 % 0 lf 1019,6 hPa 0,0 l/m 2 min 0 min 316 W/m 18,8 km/h (3 Bft) 91,30 %
21.03.2016 12:40 8,9 C 12,2 C 9,4 C 75 % 0 lf 1019,6 hPa 0,0 l/m 0 min 0 min 292 W/m 18,8 km/h (3 Bft) 93,62 %
21.03.2016 12:42 8,9 C 11,7 C 8,9 C 75 % 0 lf 1019,6 hPa 0,0 l/m 0 min 0 min 270 W/m 14,6 km/h (3 Bft) 89,58 %
21.03.2016 12:44 8,9 C 11,7 C 8,9 C 74 % 0 lf 1019,6 hPa 0,0 l/m 0 min 0 min 253 W/m 16,7 km/h (3 Bft) 93,62 %
21.03.2016 12:46 8,9 C 11,7 C 8,9 C 74 % 0 lf 1019,6 hPa 0,0 l/m 0 min 0 min 227 W/m 14,6 km/h (3 Bft) 93,62 %
21.03.2016 12:48 8,9 C 11,1 C 8,9 C 74 % 0 lf 1019,6 hPa 0,0 l/m 0 min 0 min 195 W/m 16,7 km/h (3 Bft) 93,62 %
21.03.2016 12:50 9,0 C 11,1 C 8,9 C 75 % 0 lf 1019,6 hPa 0,0 l/m 0 min 0 min 181 W/m 10,5 km/h (2 Bft) 93,48 %
21.03.2016 12:52 9,0 C 11,1 C 8,9 C 75 % 0 lf 1019,6 hPa 0,0 l/m 0 min 0 min 155 W/m 16,7 km/h (3 Bft) 93,62 %
21.03.2016 12:54 9,0 C 10,6 C 8,3 C 75 % 0 lf 1019,6 hPa 0,0 l/m 0 min 0 min 136 W/m 16,7 km/h (3 Bft) 91,49 %
21.03.2016 12:56 9,0 C 10,6 C 8,3 C 74 % 0 lf 1019,6 hPa 0,0 l/m 0 min 0 min 122 W/m 20,9 km/h (4 Bft) 91,49 %
21.03.2016 12:58 9,0 C 10,0 C 8,3 C 74 % 0 lf 1019,6 hPa 0,0 l/m 0 min 0 min 134 W/m 20,9 km/h (4 Bft) 89,36 %
21.03.2016 13:00 9,0 C 10,0 C 8,3 C 73 % 0 lf 1019,6 hPa 0,0 l/m 0 min 0 min 163 W/m 14,6 km/h (3 Bft) 95,74 %
21.03.2016 13:02 8,9 C 10,0 C 8,3 C 72 % 0 lf 1019,6 hPa 0,0 l/m 0 min 0 min 206 W/m 14,6 km/h (3 Bft) 97,87 %
21.03.2016 13:04 8,9 C 10,6 C 8,9 C 72 % 0 lf 1019,6 hPa 0,0 l/m 0 min 0 min 241 W/m 10,5 km/h (2 Bft) 97,87 %
21.03.2016 13:06 8,9 C 11,1 C 8,9 C 72 % 0 lf 1019,5 hPa 0,0 l/m 0 min 0 min 252 W/m 8,4 km/h (2 Bft) 97,37 %
21.03.2016 13:08 9,0 C 11,1 C 9,4 C 72 % 0 lf 1019,5 hPa 0,0 l/m 0 min 0 min 262 W/m 14,6 km/h (3 Bft) 95,74 %
21.03.2016 13:10 9,0 C 11,7 C 9,4 C 72 % 0 lf 1019,5 hPa 0,0 l/m 0 min 0 min 288 W/m 12,6 km/h (3 Bft) 97,87 %
21.03.2016 13:12 9,0 C 12,2 C 9,4 C 72 % 0 lf 1019,4 hPa 0,0 l/m 2 min 0 min 336 W/m 14,6 km/h (3 Bft) 100,00 %
21.03.2016 13:14 9,1 C 12,8 C 9,4 C 72 % 0 lf 1019,4 hPa 0,0 l/m 2 min 0 min 372 W/m 14,6 km/h (3 Bft) 97,87 %
21.03.2016 13:16 9,1 C 13,3 C 10,0 C 72 % 0 lf 1019,4 hPa 0,0 l/m 2 min 0 min 393 W/m 14,6 km/h (3 Bft) 97,83 %
21.03.2016 13:18 9,2 C 13,9 C 10,0 C 72 % 0 lf 1019,3 hPa 0,0 l/m 2 min 0 min 385 W/m 8,4 km/h (2 Bft) 100,00 %
21.03.2016 13:20 9,2 C 14,4 C 10,0 C 72 % 0 lf 1019,2 hPa 0,0 l/m 2 min 0 min 393 W/m 6,3 km/h (2 Bft) 100,00 %
21.03.2016 13:22 9,3 C 15,0 C 10,6 C 72 % 0 lf 1019,1 hPa 0,0 l/m 2 min 0 min 386 W/m 6,3 km/h (2 Bft) 97,87 %
21.03.2016 13:24 9,4 C 15,0 C 10,6 C 73 % 0 lf 1019,1 hPa 0,0 l/m 2 min 0 min 390 W/m 10,5 km/h (2 Bft) 100,00 %
21.03.2016 13:26 9,5 C 15,0 C 10,6 C 72 % 0 lf 1019,1 hPa 0,0 l/m 2 min 0 min 403 W/m 16,7 km/h (3 Bft) 100,00 %
21.03.2016 13:28 9,6 C 15,0 C 11,1 C 72 % 0 lf 1019,0 hPa 0,0 l/m 2 min 0 min 398 W/m 10,5 km/h (2 Bft) 100,00 %
21.03.2016 13:30 9,6 C 15,0 C 11,7 C 72 % 0 lf 1019,0 hPa 0,0 l/m 2 min 0 min 394 W/m 8,4 km/h (2 Bft) 97,87 %
21.03.2016 13:32 9,7 C 15,0 C 11,1 C 72 % 0 lf 1019,0 hPa 0,0 l/m 2 min 0 min 425 W/m 18,8 km/h (3 Bft) 89,36 %
21.03.2016 13:34 9,8 C 15,0 C 11,1 C 71 % 0 lf 1019,0 hPa 0,0 l/m 2 min 0 min 424 W/m 18,8 km/h (3 Bft) 97,87 %
21.03.2016 13:36 9,9 C 15,0 C 11,1 C 70 % 0 lf 1019,0 hPa 0,0 l/m 2 min 0 min 422 W/m 14,6 km/h (3 Bft) 100,00 %
21.03.2016 13:38 9,9 C 15,0 C 11,1 C 70 % 0 lf 1019,0 hPa 0,0 l/m 2 min 0 min 424 W/m 14,6 km/h (3 Bft) 95,74 %
21.03.2016 13:40 10,0 C 15,0 C 11,1 C 70 % 0 lf 1019,0 hPa 0,0 l/m 2 min 0 min 408 W/m 14,6 km/h (3 Bft) 100,00 %
21.03.2016 13:42 10,1 C 15,0 C 10,6 C 69 % 0 lf 1019,0 hPa 0,0 l/m 2 min 0 min 401 W/m 16,7 km/h (3 Bft) 100,00 %
21.03.2016 13:44 10,1 C 15,0 C 10,6 C 69 % 0 lf 1019,1 hPa 0,0 l/m 2 min 0 min 397 W/m 18,8 km/h (3 Bft) 100,00 %
21.03.2016 13:46 10,1 C 15,0 C 10,6 C 69 % 0 lf 1018,9 hPa 0,0 l/m 2 min 0 min 427 W/m 14,6 km/h (3 Bft) 97,87 %
21.03.2016 13:48 10,2 C 15,0 C 10,6 C 68 % 0 lf 1018,9 hPa 0,0 l/m 2 min 0 min 418 W/m 12,6 km/h (3 Bft) 97,83 %
21.03.2016 13:50 10,2 C 15,0 C 10,6 C 68 % 0 lf 1018,9 hPa 0,0 l/m 2 min 0 min 404 W/m 18,8 km/h (3 Bft) 97,87 %
21.03.2016 13:52 10,2 C 15,0 C 11,1 C 68 % 0 lf 1018,9 hPa 0,0 l/m 2 min 0 min 396 W/m 18,8 km/h (3 Bft) 97,87 %
21.03.2016 13:54 10,2 C 15,0 C 10,6 C 67 % 0 lf 1019,0 hPa 0,0 l/m 2 min 0 min 386 W/m 16,7 km/h (3 Bft) 100,00 %
21.03.2016 13:56 10,3 C 14,4 C 10,6 C 66 % 0 lf 1018,9 hPa 0,0 l/m 2 min 0 min 372 W/m 16,7 km/h (3 Bft) 100,00 %
21.03.2016 13:58 10,3 C 13,9 C 10,0 C 66 % 0 lf 1018,8 hPa 0,0 l/m 2 min 0 min 350 W/m 12,6 km/h (3 Bft) 97,87 %
21.03.2016 14:00 10,3 C 14,4 C 10,6 C 67 % 0 lf 1018,8 hPa 0,0 l/m 2 min 0 min 323 W/m 12,6 km/h (3 Bft) 100,00 %
21.03.2016 14:02 10,3 C 14,4 C 11,1 C 68 % 0 lf 1018,8 hPa 0,0 l/m 2 min 0 min 300 W/m 12,6 km/h (3 Bft) 97,87 %
21.03.2016 14:04 10,4 C 13,9 C 11,1 C 68 % 0 lf 1018,8 hPa 0,0 l/m 0 min 0 min 267 W/m 12,6 km/h (3 Bft) 97,87 %
21.03.2016 14:06 10,4 C 13,3 C 10,6 C 67 % 0 lf 1018,8 hPa 0,0 l/m 0 min 0 min 223 W/m 14,6 km/h (3 Bft) 100,00 %
21.03.2016 14:08 10,4 C 13,3 C 10,6 C 67 % 0 lf 1018,7 hPa 0,0 l/m 0 min 0 min 222 W/m 12,6 km/h (3 Bft) 100,00 %
21.03.2016 14:10 10,4 C 13,3 C 10,6 C 67 % 0 lf 1018,8 hPa 0,0 l/m 0 min 0 min 222 W/m 12,6 km/h (3 Bft) 97,14 %
21.03.2016 14:12 10,4 C 12,8 C 10,6 C 67 % 0 lf 1018,7 hPa 0,0 l/m 0 min 0 min 214 W/m 12,6 km/h (3 Bft) 100,00 %
21.03.2016 14:14 10,4 C 12,8 C 10,6 C 67 % 0 lf 1018,7 hPa 0,0 l/m 0 min 0 min 211 W/m 10,5 km/h (2 Bft) 100,00 %
21.03.2016 14:16 10,5 C 12,8 C 10,6 C 67 % 0 lf 1018,6 hPa 0,0 l/m 0 min 0 min 200 W/m 12,6 km/h (3 Bft) 100,00 %
21.03.2016 14:18 10,5 C 12,2 C 10,0 C 67 % 0 lf 1018,7 hPa 0,0 l/m 0 min 0 min 187 W/m 16,7 km/h (3 Bft) 100,00 %
21.03.2016 14:20 10,5 C 11,7 C 9,4 C 66 % 0 lf 1018,6 hPa 0,0 l/m 0 min 0 min 180 W/m 12,6 km/h (3 Bft) 91,49 %
21.03.2016 14:22 10,4 C 11,7 C 9,4 C 66 % 0 lf 1018,6 hPa 0,0 l/m 0 min 0 min 164 W/m 16,7 km/h (3 Bft) 97,87 %
21.03.2016 14:24 10,4 C 11,7 C 9,4 C 66 % 0 lf 1018,6 hPa 0,0 l/m 0 min 0 min 171 W/m 16,7 km/h (3 Bft) 100,00 %
21.03.2016 14:26 10,4 C 11,7 C 9,4 C 66 % 0 lf 1018,7 hPa 0,0 l/m 0 min 0 min 177 W/m 14,6 km/h (3 Bft) 97,83 %
21.03.2016 14:28 10,3 C 11,7 C 9,4 C 66 % 0 lf 1018,6 hPa 0,0 l/m 0 min 0 min 175 W/m 14,6 km/h (3 Bft) 97,87 %
21.03.2016 14:30 10,3 C 11,7 C 9,4 C 68 % 0 lf 1018,6 hPa 0,0 l/m 0 min 0 min 171 W/m 10,5 km/h (2 Bft) 97,87 %
21.03.2016 14:32 10,3 C 11,7 C 10,0 C 68 % 0 lf 1018,6 hPa 0,0 l/m 0 min 0 min 171 W/m 16,7 km/h (3 Bft) 93,62 %
21.03.2016 14:34 10,3 C 11,7 C 10,0 C 68 % 0 lf 1018,5 hPa 0,0 l/m 0 min 0 min 166 W/m 14,6 km/h (3 Bft) 95,74 %
21.03.2016 14:36 10,3 C 11,7 C 10,0 C 68 % 0 lf 1018,5 hPa 0,0 l/m 0 min 0 min 159 W/m 10,5 km/h (2 Bft) 94,34 %
21.03.2016 14:38 10,3 C 11,7 C 10,0 C 68 % 0 lf 1018,5 hPa 0,0 l/m 0 min 0 min 155 W/m 12,6 km/h (3 Bft) 93,62 %
21.03.2016 14:40 10,3 C 11,7 C 9,4 C 68 % 0 lf 1018,5 hPa 0,0 l/m 0 min 0 min 158 W/m 10,5 km/h (2 Bft) 93,62 %
21.03.2016 14:42 10,3 C 11,7 C 10,0 C 68 % 0 lf 1018,5 hPa 0,0 l/m 0 min 0 min 163 W/m 18,8 km/h (3 Bft) 95,74 %
21.03.2016 14:44 10,3 C 11,7 C 9,4 C 68 % 0 lf 1018,5 hPa 0,0 l/m 0 min 0 min 169 W/m 23,0 km/h (4 Bft) 95,74 %
21.03.2016 14:46 10,3 C 11,7 C 9,4 C 68 % 0 lf 1018,4 hPa 0,0 l/m 0 min 0 min 176 W/m 16,7 km/h (3 Bft) 95,65 %
21.03.2016 14:48 10,2 C 11,7 C 9,4 C 68 % 0 lf 1018,5 hPa 0,0 l/m 0 min 0 min 184 W/m 16,7 km/h (3 Bft) 93,62 %
21.03.2016 14:50 10,2 C 11,7 C 10,0 C 68 % 0 lf 1018,4 hPa 0,0 l/m 0 min 0 min 189 W/m 16,7 km/h (3 Bft) 93,62 %
21.03.2016 14:52 10,2 C 11,7 C 10,0 C 68 % 0 lf 1018,4 hPa 0,0 l/m 0 min 0 min 185 W/m 12,6 km/h (3 Bft) 93,62 %
21.03.2016 14:54 10,2 C 11,7 C 10,0 C 68 % 0 lf 1018,5 hPa 0,0 l/m 0 min 0 min 178 W/m 14,6 km/h (3 Bft) 95,74 %
21.03.2016 14:56 10,2 C 11,7 C 10,0 C 68 % 0 lf 1018,5 hPa 0,0 l/m 0 min 0 min 173 W/m 14,6 km/h (3 Bft) 93,62 %
21.03.2016 14:58 10,2 C 11,7 C 10,0 C 68 % 0 lf 1018,4 hPa 0,0 l/m 0 min 0 min 168 W/m 16,7 km/h (3 Bft) 95,65 %
21.03.2016 15:00 10,2 C 11,7 C 10,0 C 69 % 0 lf 1018,3 hPa 0,0 l/m 0 min 0 min 164 W/m 16,7 km/h (3 Bft) 91,49 %
21.03.2016 15:02 10,2 C 11,7 C 9,4 C 69 % 0 lf 1018,4 hPa 0,0 l/m 0 min 0 min 157 W/m 16,7 km/h (3 Bft) 95,92 %
21.03.2016 15:04 10,2 C 11,7 C 9,4 C 69 % 0 lf 1018,4 hPa 0,0 l/m 0 min 0 min 151 W/m 12,6 km/h (3 Bft) 91,49 %
21.03.2016 15:06 10,2 C 11,1 C 9,4 C 69 % 0 lf 1018,4 hPa 0,0 l/m 0 min 0 min 145 W/m 14,6 km/h (3 Bft) 85,11 %
21.03.2016 15:08 10,2 C 11,7 C 9,4 C 69 % 0 lf 1018,4 hPa 0,0 l/m 0 min 0 min 141 W/m 12,6 km/h (3 Bft) 93,62 %
21.03.2016 15:10 10,2 C 11,7 C 9,4 C 69 % 0 lf 1018,3 hPa 0,0 l/m 0 min 0 min 137 W/m 14,6 km/h (3 Bft) 95,65 %
21.03.2016 15:12 10,2 C 11,1 C 9,4 C 69 % 0 lf 1018,3 hPa 0,0 l/m 0 min 0 min 133 W/m 14,6 km/h (3 Bft) 93,75 %
21.03.2016 15:14 10,2 C 11,1 C 9,4 C 69 % 0 lf 1018,3 hPa 0,0 l/m 0 min 0 min 128 W/m 18,8 km/h (3 Bft) 93,62 %
21.03.2016 15:16 10,2 C 11,1 C 9,4 C 69 % 0 lf 1018,3 hPa 0,0 l/m 0 min 0 min 121 W/m 18,8 km/h (3 Bft) 97,87 %
21.03.2016 15:18 10,2 C 11,1 C 9,4 C 69 % 0 lf 1018,3 hPa 0,0 l/m 0 min 0 min 113 W/m 18,8 km/h (3 Bft) 95,74 %
21.03.2016 15:20 10,2 C 11,1 C 8,9 C 69 % 0 lf 1018,4 hPa 0,0 l/m 0 min 0 min 107 W/m 18,8 km/h (3 Bft) 93,62 %
21.03.2016 15:22 10,1 C 10,6 C 8,9 C 69 % 0 lf 1018,3 hPa 0,0 l/m 0 min 0 min 102 W/m 18,8 km/h (3 Bft) 91,30 %
21.03.2016 15:24 10,1 C 10,6 C 8,9 C 69 % 0 lf 1018,3 hPa 0,0 l/m 0 min 0 min 103 W/m 16,7 km/h (3 Bft) 93,62 %
21.03.2016 15:26 10,1 C 10,6 C 8,9 C 69 % 0 lf 1018,3 hPa 0,0 l/m 0 min 0 min 104 W/m 18,8 km/h (3 Bft) 93,62 %
21.03.2016 15:28 10,1 C 10,6 C 8,9 C 69 % 0 lf 1018,3 hPa 0,0 l/m 0 min 0 min 101 W/m 20,9 km/h (4 Bft) 87,23 %
21.03.2016 15:30 10,0 C 10,6 C 8,9 C 69 % 0 lf 1018,2 hPa 0,0 l/m 0 min 0 min 98 W/m 16,7 km/h (3 Bft) 94,59 %
21.03.2016 15:32 9,9 C 10,6 C 8,9 C 69 % 0 lf 1018,2 hPa 0,0 l/m 0 min 0 min 96 W/m 23,0 km/h (4 Bft) 91,49 %
21.03.2016 15:34 9,9 C 10,6 C 8,9 C 69 % 0 lf 1018,2 hPa 0,0 l/m 0 min 0 min 93 W/m 18,8 km/h (3 Bft) 93,62 %
21.03.2016 15:36 9,9 C 10,6 C 8,9 C 69 % 0 lf 1018,2 hPa 0,0 l/m 0 min 0 min 90 W/m 16,7 km/h (3 Bft) 93,48 %
21.03.2016 15:38 9,9 C 10,6 C 8,9 C 69 % 0 lf 1018,2 hPa 0,0 l/m 0 min 0 min 88 W/m 20,9 km/h (4 Bft) 91,49 %
21.03.2016 15:40 9,9 C 10,6 C 8,9 C 70 % 0 lf 1018,2 hPa 0,0 l/m 0 min 0 min 84 W/m 16,7 km/h (3 Bft) 97,87 %
21.03.2016 15:42 9,8 C 10,6 C 8,9 C 70 % 0 lf 1018,2 hPa 0,0 l/m 0 min 0 min 84 W/m 16,7 km/h (3 Bft) 97,87 %
21.03.2016 15:44 9,8 C 10,6 C 8,9 C 70 % 0 lf 1018,2 hPa 0,0 l/m 0 min 0 min 84 W/m 10,5 km/h (2 Bft) 95,74 %
21.03.2016 15:46 9,8 C 10,0 C 8,9 C 70 % 0 lf 1018,2 hPa 0,0 l/m 0 min 0 min 82 W/m 14,6 km/h (3 Bft) 91,49 %
21.03.2016 15:48 9,8 C 10,0 C 8,3 C 70 % 0 lf 1018,1 hPa 0,0 l/m 0 min 0 min 81 W/m 20,9 km/h (4 Bft) 93,48 %
21.03.2016 15:50 9,8 C 10,0 C 8,9 C 70 % 0 lf 1018,1 hPa 0,0 l/m 0 min 0 min 83 W/m 16,7 km/h (3 Bft) 95,74 %
21.03.2016 15:52 9,7 C 10,0 C 8,3 C 71 % 0 lf 1018,0 hPa 0,0 l/m 0 min 0 min 84 W/m 18,8 km/h (3 Bft) 97,87 %
21.03.2016 15:54 9,7 C 10,0 C 8,3 C 71 % 0 lf 1018,0 hPa 0,0 l/m 0 min 0 min 83 W/m 12,6 km/h (3 Bft) 97,87 %
21.03.2016 15:56 9,7 C 10,0 C 8,9 C 71 % 0 lf 1018,0 hPa 0,0 l/m 0 min 0 min 86 W/m 16,7 km/h (3 Bft) 95,74 %
21.03.2016 15:58 9,7 C 10,0 C 8,9 C 72 % 0 lf 1018,0 hPa 0,0 l/m 0 min 0 min 92 W/m 16,7 km/h (3 Bft) 89,36 %
21.03.2016 16:00 9,7 C 10,0 C 8,9 C 72 % 0 lf 1018,1 hPa 0,0 l/m 0 min 0 min 94 W/m 12,6 km/h (3 Bft) 95,65 %
21.03.2016 16:02 9,7 C 10,0 C 8,9 C 72 % 0 lf 1018,0 hPa 0,0 l/m 0 min 0 min 97 W/m 16,7 km/h (3 Bft) 97,87 %
21.03.2016 16:04 9,6 C 10,0 C 8,3 C 72 % 0 lf 1018,0 hPa 0,0 l/m 0 min 0 min 91 W/m 12,6 km/h (3 Bft) 97,87 %
21.03.2016 16:06 9,6 C 10,0 C 8,3 C 72 % 0 lf 1018,0 hPa 0,0 l/m 0 min 0 min 81 W/m 14,6 km/h (3 Bft) 92,73 %
21.03.2016 16:08 9,6 C 10,0 C 8,3 C 72 % 0 lf 1018,0 hPa 0,0 l/m 0 min 0 min 73 W/m 12,6 km/h (3 Bft) 95,65 %
21.03.2016 16:10 9,6 C 10,0 C 8,3 C 72 % 0 lf 1018,0 hPa 0,0 l/m 0 min 0 min 74 W/m 14,6 km/h (3 Bft) 97,87 %
21.03.2016 16:12 9,6 C 10,0 C 8,3 C 72 % 0 lf 1018,0 hPa 0,0 l/m 0 min 0 min 75 W/m 14,6 km/h (3 Bft) 95,74 %
21.03.2016 16:14 9,6 C 10,0 C 8,3 C 72 % 0 lf 1017,9 hPa 0,0 l/m 0 min 0 min 75 W/m 18,8 km/h (3 Bft) 100,00 %
21.03.2016 16:16 9,5 C 10,0 C 8,3 C 72 % 0 lf 1017,9 hPa 0,0 l/m 0 min 0 min 73 W/m 12,6 km/h (3 Bft) 100,00 %
21.03.2016 16:18 9,5 C 10,0 C 8,3 C 72 % 0 lf 1017,9 hPa 0,0 l/m 0 min 0 min 67 W/m 16,7 km/h (3 Bft) 97,87 %
21.03.2016 16:20 9,4 C 10,0 C 8,3 C 72 % 0 lf 1017,9 hPa 0,0 l/m 0 min 0 min 61 W/m 10,5 km/h (2 Bft) 100,00 %
21.03.2016 16:22 9,4 C 10,0 C 8,3 C 72 % 0 lf 1017,8 hPa 0,0 l/m 0 min 0 min 62 W/m 18,8 km/h (3 Bft) 93,75 %
21.03.2016 16:24 9,4 C 9,4 C 8,3 C 72 % 0 lf 1017,8 hPa 0,0 l/m 0 min 0 min 62 W/m 14,6 km/h (3 Bft) 95,74 %
21.03.2016 16:26 9,4 C 9,4 C 8,3 C 72 % 0 lf 1017,8 hPa 0,0 l/m 0 min 0 min 62 W/m 14,6 km/h (3 Bft) 100,00 %
21.03.2016 16:28 9,4 C 9,4 C 7,8 C 73 % 0 lf 1017,8 hPa 0,0 l/m 0 min 0 min 62 W/m 12,6 km/h (3 Bft) 95,74 %
21.03.2016 16:30 9,3 C 9,4 C 7,8 C 73 % 0 lf 1017,7 hPa 0,0 l/m 0 min 0 min 59 W/m 12,6 km/h (3 Bft) 100,00 %
21.03.2016 16:32 9,3 C 9,4 C 7,8 C 73 % 0 lf 1017,7 hPa 0,0 l/m 0 min 0 min 53 W/m 14,6 km/h (3 Bft) 97,87 %
21.03.2016 16:34 9,3 C 9,4 C 7,8 C 73 % 0 lf 1017,7 hPa 0,0 l/m 0 min 0 min 52 W/m 16,7 km/h (3 Bft) 97,87 %
21.03.2016 16:36 9,3 C 9,4 C 7,8 C 73 % 0 lf 1017,7 hPa 0,0 l/m 0 min 0 min 47 W/m 12,6 km/h (3 Bft) 100,00 %
21.03.2016 16:38 9,2 C 9,4 C 7,8 C 73 % 0 lf 1017,7 hPa 0,0 l/m 0 min 0 min 43 W/m 10,5 km/h (2 Bft) 95,74 %
21.03.2016 16:40 9,2 C 9,4 C 7,8 C 73 % 0 lf 1017,7 hPa 0,0 l/m 0 min 0 min 40 W/m 16,7 km/h (3 Bft) 93,62 %
21.03.2016 16:42 9,2 C 9,4 C 7,8 C 73 % 0 lf 1017,7 hPa 0,0 l/m 0 min 0 min 43 W/m 10,5 km/h (2 Bft) 97,83 %
21.03.2016 16:44 9,2 C 9,4 C 7,8 C 73 % 0 lf 1017,6 hPa 0,0 l/m 0 min 0 min 44 W/m 16,7 km/h (3 Bft) 97,87 %
21.03.2016 16:46 9,2 C 9,4 C 7,8 C 74 % 0 lf 1017,6 hPa 0,0 l/m 0 min 0 min 44 W/m 8,4 km/h (2 Bft) 95,65 %
21.03.2016 16:48 9,1 C 9,4 C 7,8 C 74 % 0 lf 1017,6 hPa 0,0 l/m 0 min 0 min 42 W/m 8,4 km/h (2 Bft) 95,74 %
21.03.2016 16:50 9,1 C 9,4 C 7,8 C 74 % 0 lf 1017,6 hPa 0,0 l/m 0 min 0 min 40 W/m 14,6 km/h (3 Bft) 97,87 %
21.03.2016 16:52 9,1 C 9,4 C 7,8 C 74 % 0 lf 1017,6 hPa 0,0 l/m 0 min 0 min 40 W/m 12,6 km/h (3 Bft) 97,87 %
21.03.2016 16:54 9,1 C 9,4 C 7,8 C 74 % 0 lf 1017,6 hPa 0,0 l/m 0 min 0 min 39 W/m 16,7 km/h (3 Bft) 95,74 %
21.03.2016 16:56 9,1 C 9,4 C 7,8 C 74 % 0 lf 1017,5 hPa 0,0 l/m 0 min 0 min 38 W/m 6,3 km/h (2 Bft) 97,87 %
21.03.2016 16:58 9,0 C 8,9 C 7,8 C 74 % 0 lf 1017,6 hPa 0,0 l/m 0 min 0 min 36 W/m 16,7 km/h (3 Bft) 97,83 %
21.03.2016 17:00 9,0 C 8,9 C 7,8 C 74 % 0 lf 1017,5 hPa 0,0 l/m 0 min 0 min 34 W/m 14,6 km/h (3 Bft) 97,87 %
21.03.2016 17:02 8,9 C 8,9 C 7,8 C 74 % 0 lf 1017,5 hPa 0,0 l/m 0 min 0 min 33 W/m 12,6 km/h (3 Bft) 97,87 %
21.03.2016 17:04 8,9 C 8,9 C 7,8 C 74 % 0 lf 1017,5 hPa 0,0 l/m 0 min 0 min 34 W/m 16,7 km/h (3 Bft) 97,87 %
21.03.2016 17:06 8,9 C 8,9 C 7,8 C 74 % 0 lf 1017,5 hPa 0,0 l/m 0 min 0 min 35 W/m 16,7 km/h (3 Bft) 97,87 %
21.03.2016 17:08 8,9 C 8,9 C 7,8 C 74 % 0 lf 1017,5 hPa 0,0 l/m 0 min 0 min 35 W/m 10,5 km/h (2 Bft) 100,00 %
21.03.2016 17:10 8,9 C 8,9 C 7,2 C 74 % 0 lf 1017,5 hPa 0,0 l/m 0 min 0 min 33 W/m 14,6 km/h (3 Bft) 97,83 %
21.03.2016 17:12 8,8 C 8,9 C 7,2 C 74 % 0 lf 1017,5 hPa 0,0 l/m 0 min 0 min 31 W/m 16,7 km/h (3 Bft) 97,87 %
21.03.2016 17:14 8,8 C 8,9 C 7,2 C 74 % 0 lf 1017,4 hPa 0,0 l/m 0 min 0 min 28 W/m 16,7 km/h (3 Bft) 95,74 %
21.03.2016 17:16 8,8 C 8,9 C 7,2 C 74 % 0 lf 1017,3 hPa 0,0 l/m 0 min 0 min 29 W/m 16,7 km/h (3 Bft) 97,87 %
21.03.2016 17:18 8,8 C 8,9 C 7,2 C 75 % 0 lf 1017,3 hPa 0,0 l/m 0 min 0 min 31 W/m 10,5 km/h (2 Bft) 100,00 %
21.03.2016 17:20 8,8 C 8,9 C 7,2 C 75 % 0 lf 1017,3 hPa 0,0 l/m 0 min 0 min 32 W/m 10,5 km/h (2 Bft) 97,83 %
21.03.2016 17:22 8,8 C 8,9 C 7,2 C 75 % 0 lf 1017,4 hPa 0,0 l/m 0 min 0 min 32 W/m 14,6 km/h (3 Bft) 100,00 %
21.03.2016 17:24 8,7 C 8,9 C 7,2 C 75 % 0 lf 1017,3 hPa 0,0 l/m 0 min 0 min 32 W/m 16,7 km/h (3 Bft) 100,00 %
21.03.2016 17:26 8,7 C 8,9 C 7,2 C 75 % 0 lf 1017,3 hPa 0,0 l/m 0 min 0 min 32 W/m 12,6 km/h (3 Bft) 100,00 %
21.03.2016 17:28 8,7 C 8,9 C 7,2 C 75 % 0 lf 1017,3 hPa 0,0 l/m 0 min 0 min 30 W/m 16,7 km/h (3 Bft) 100,00 %
21.03.2016 17:30 8,7 C 8,9 C 7,2 C 75 % 0 lf 1017,3 hPa 0,0 l/m 0 min 0 min 29 W/m 12,6 km/h (3 Bft) 91,49 %
21.03.2016 17:32 8,7 C 8,9 C 7,2 C 76 % 0 lf 1017,3 hPa 0,0 l/m 0 min 0 min 26 W/m 14,6 km/h (3 Bft) 100,00 %
21.03.2016 17:34 8,7 C 8,9 C 7,2 C 76 % 0 lf 1017,3 hPa 0,0 l/m 0 min 0 min 25 W/m 12,6 km/h (3 Bft) 100,00 %
21.03.2016 17:36 8,7 C 8,9 C 7,2 C 76 % 0 lf 1017,3 hPa 0,0 l/m 0 min 0 min 25 W/m 8,4 km/h (2 Bft) 98,18 %
21.03.2016 17:38 8,7 C 8,9 C 7,2 C 76 % 0 lf 1017,3 hPa 0,0 l/m 0 min 0 min 24 W/m 14,6 km/h (3 Bft) 100,00 %
21.03.2016 17:40 8,7 C 8,9 C 7,2 C 76 % 0 lf 1017,3 hPa 0,0 l/m 0 min 0 min 23 W/m 18,8 km/h (3 Bft) 95,74 %
21.03.2016 17:42 8,7 C 8,9 C 7,2 C 76 % 0 lf 1017,3 hPa 0,0 l/m 0 min 0 min 22 W/m 16,7 km/h (3 Bft) 97,83 %
21.03.2016 17:44 8,6 C 8,9 C 7,2 C 76 % 0 lf 1017,3 hPa 0,0 l/m 0 min 0 min 19 W/m 14,6 km/h (3 Bft) 100,00 %
21.03.2016 17:46 8,6 C 8,9 C 7,2 C 76 % 0 lf 1017,3 hPa 0,0 l/m 0 min 0 min 18 W/m 12,6 km/h (3 Bft) 93,62 %
21.03.2016 17:48 8,6 C 8,9 C 7,2 C 76 % 0 lf 1017,3 hPa 0,0 l/m 0 min 0 min 15 W/m 6,3 km/h (2 Bft) 100,00 %
21.03.2016 17:50 8,6 C 8,3 C 7,2 C 76 % 0 lf 1017,3 hPa 0,0 l/m 0 min 0 min 14 W/m 12,6 km/h (3 Bft) 100,00 %
21.03.2016 17:52 8,6 C 8,3 C 7,2 C 76 % 0 lf 1017,3 hPa 0,0 l/m 0 min 0 min 13 W/m 10,5 km/h (2 Bft) 97,87 %
21.03.2016 17:54 8,6 C 8,3 C 7,2 C 76 % 0 lf 1017,3 hPa 0,0 l/m 0 min 0 min 12 W/m 12,6 km/h (3 Bft) 97,83 %
21.03.2016 17:56 8,6 C 8,3 C 7,2 C 77 % 0 lf 1017,3 hPa 0,0 l/m 0 min 0 min 14 W/m 10,5 km/h (2 Bft) 97,87 %
21.03.2016 17:58 8,6 C 8,3 C 7,2 C 77 % 0 lf 1017,3 hPa 0,0 l/m 0 min 0 min 14 W/m 12,6 km/h (3 Bft) 97,87 %
21.03.2016 18:00 8,5 C 8,3 C 7,2 C 77 % 0 lf 1017,3 hPa 0,0 l/m 0 min 0 min 14 W/m 16,7 km/h (3 Bft) 95,74 %
21.03.2016 18:02 8,5 C 8,3 C 7,2 C 77 % 0 lf 1017,4 hPa 0,0 l/m 0 min 0 min 14 W/m 12,6 km/h (3 Bft) 93,62 %
21.03.2016 18:04 8,5 C 8,3 C 7,2 C 77 % 0 lf 1017,3 hPa 0,0 l/m 0 min 0 min 12 W/m 16,7 km/h (3 Bft) 93,75 %
21.03.2016 18:06 8,5 C 8,3 C 7,2 C 77 % 0 lf 1017,3 hPa 0,0 l/m 0 min 0 min 11 W/m 18,8 km/h (3 Bft) 95,65 %
21.03.2016 18:08 8,4 C 8,3 C 7,2 C 78 % 0 lf 1017,4 hPa 0,0 l/m 0 min 0 min 11 W/m 18,8 km/h (3 Bft) 93,62 %
21.03.2016 18:10 8,4 C 8,3 C 7,2 C 78 % 0 lf 1017,3 hPa 0,0 l/m 0 min 0 min 11 W/m 16,7 km/h (3 Bft) 93,62 %
21.03.2016 18:12 8,4 C 8,3 C 7,2 C 78 % 0 lf 1017,3 hPa 0,0 l/m 0 min 0 min 10 W/m 14,6 km/h (3 Bft) 97,87 %
21.03.2016 18:14 8,4 C 8,3 C 7,2 C 78 % 0 lf 1017,4 hPa 0,0 l/m 0 min 0 min 9 W/m 14,6 km/h (3 Bft) 93,62 %
21.03.2016 18:16 8,4 C 8,3 C 7,2 C 78 % 0 lf 1017,4 hPa 0,0 l/m 0 min 0 min 9 W/m 12,6 km/h (3 Bft) 89,13 %
21.03.2016 18:18 8,4 C 8,3 C 6,7 C 78 % 0 lf 1017,3 hPa 0,0 l/m 0 min 0 min 9 W/m 18,8 km/h (3 Bft) 91,49 %
21.03.2016 18:20 8,4 C 8,3 C 6,7 C 78 % 0 lf 1017,4 hPa 0,0 l/m 0 min 0 min 9 W/m 20,9 km/h (4 Bft) 89,36 %
21.03.2016 18:22 8,4 C 8,3 C 6,7 C 78 % 0 lf 1017,4 hPa 0,0 l/m 0 min 0 min 7 W/m 12,6 km/h (3 Bft) 91,49 %
21.03.2016 18:24 8,3 C 8,3 C 6,7 C 79 % 0 lf 1017,3 hPa 0,0 l/m 0 min 0 min 7 W/m 14,6 km/h (3 Bft) 93,62 %
21.03.2016 18:26 8,3 C 8,3 C 6,7 C 79 % 0 lf 1017,3 hPa 0,0 l/m 0 min 0 min 7 W/m 12,6 km/h (3 Bft) 89,36 %
21.03.2016 18:28 8,3 C 8,3 C 6,7 C 79 % 0 lf 1017,3 hPa 0,0 l/m 0 min 0 min 7 W/m 14,6 km/h (3 Bft) 91,30 %
21.03.2016 18:30 8,3 C 8,3 C 6,7 C 79 % 0 lf 1017,3 hPa 0,0 l/m 0 min 0 min 5 W/m 14,6 km/h (3 Bft) 91,49 %
21.03.2016 18:32 8,3 C 8,3 C 6,7 C 79 % 0 lf 1017,3 hPa 0,0 l/m 0 min 0 min 5 W/m 14,6 km/h (3 Bft) 91,67 %
21.03.2016 18:34 8,3 C 8,3 C 6,7 C 79 % 0 lf 1017,3 hPa 0,0 l/m 0 min 0 min 5 W/m 16,7 km/h (3 Bft) 91,49 %
21.03.2016 18:36 8,3 C 8,3 C 6,7 C 79 % 0 lf 1017,3 hPa 0,0 l/m 0 min 0 min 5 W/m 10,5 km/h (2 Bft) 86,49 %
21.03.2016 18:38 8,3 C 8,3 C 6,7 C 79 % 0 lf 1017,3 hPa 0,0 l/m 0 min 0 min 0 W/m 8,4 km/h (2 Bft) 91,49 %
21.03.2016 18:40 8,2 C 8,3 C 6,7 C 79 % 0 lf 1017,3 hPa 0,0 l/m 0 min 0 min 0 W/m 12,6 km/h (3 Bft) 91,49 %
21.03.2016 18:42 8,2 C 8,3 C 6,7 C 80 % 0 lf 1017,3 hPa 0,0 l/m 0 min 0 min 0 W/m 12,6 km/h (3 Bft) 89,36 %
21.03.2016 18:44 8,2 C 8,3 C 6,7 C 80 % 0 lf 1017,3 hPa 0,0 l/m 0 min 0 min 0 W/m 10,5 km/h (2 Bft) 89,13 %
21.03.2016 18:46 8,2 C 7,8 C 6,7 C 80 % 0 lf 1017,3 hPa 0,0 l/m 0 min 0 min 0 W/m 12,6 km/h (3 Bft) 93,62 %
21.03.2016 18:48 8,2 C 7,8 C 6,7 C 80 % 0 lf 1017,3 hPa 0,0 l/m 0 min 0 min 0 W/m 12,6 km/h (3 Bft) 89,36 %
21.03.2016 18:50 8,2 C 7,8 C 6,7 C 80 % 0 lf 1017,3 hPa 0,0 l/m 0 min 0 min 0 W/m 10,5 km/h (2 Bft) 91,49 %
21.03.2016 18:52 8,2 C 7,8 C 6,7 C 80 % 0 lf 1017,3 hPa 0,0 l/m 0 min 0 min 0 W/m 14,6 km/h (3 Bft) 91,49 %
21.03.2016 18:54 8,2 C 7,8 C 6,7 C 80 % 0 lf 1017,3 hPa 0,0 l/m 0 min 0 min 0 W/m 12,6 km/h (3 Bft) 93,62 %
21.03.2016 18:56 8,1 C 7,8 C 6,7 C 80 % 0 lf 1017,3 hPa 0,0 l/m 0 min 0 min 0 W/m 12,6 km/h (3 Bft) 91,30 %
21.03.2016 18:58 8,1 C 7,8 C 6,7 C 80 % 0 lf 1017,3 hPa 0,0 l/m 0 min 0 min 0 W/m 12,6 km/h (3 Bft) 93,62 %
21.03.2016 19:00 8,1 C 7,8 C 6,7 C 80 % 0 lf 1017,3 hPa 0,0 l/m 0 min 0 min 0 W/m 10,5 km/h (2 Bft) 95,74 %
21.03.2016 19:02 8,1 C 7,8 C 6,7 C 80 % 0 lf 1017,3 hPa 0,0 l/m 0 min 0 min 0 W/m 14,6 km/h (3 Bft) 95,74 %
21.03.2016 19:04 8,1 C 7,8 C 6,7 C 81 % 0 lf 1017,3 hPa 0,0 l/m 0 min 0 min 0 W/m 12,6 km/h (3 Bft) 97,87 %
21.03.2016 19:06 8,1 C 7,8 C 6,7 C 81 % 0 lf 1017,3 hPa 0,0 l/m 0 min 0 min 0 W/m 10,5 km/h (2 Bft) 100,00 %
21.03.2016 19:08 8,0 C 7,8 C 6,7 C 81 % 0 lf 1017,3 hPa 0,0 l/m 0 min 0 min 0 W/m 10,5 km/h (2 Bft) 95,74 %
21.03.2016 19:10 8,0 C 7,8 C 6,7 C 81 % 0 lf 1017,3 hPa 0,0 l/m 0 min 0 min 0 W/m 10,5 km/h (2 Bft) 95,74 %
21.03.2016 19:12 8,0 C 7,8 C 6,7 C 81 % 0 lf 1017,3 hPa 0,0 l/m 0 min 0 min 0 W/m 12,6 km/h (3 Bft) 97,87 %
21.03.2016 19:14 7,9 C 7,8 C 6,7 C 81 % 0 lf 1017,3 hPa 0,0 l/m 0 min 0 min 0 W/m 12,6 km/h (3 Bft) 97,87 %
21.03.2016 19:16 7,9 C 7,8 C 6,7 C 81 % 0 lf 1017,3 hPa 0,0 l/m 0 min 0 min 0 W/m 20,9 km/h (4 Bft) 96,15 %
21.03.2016 19:18 7,9 C 7,8 C 6,7 C 81 % 0 lf 1017,3 hPa 0,0 l/m 0 min 0 min 0 W/m 12,6 km/h (3 Bft) 95,12 %
21.03.2016 19:20 7,9 C 7,8 C 6,1 C 81 % 0 lf 1017,3 hPa 0,0 l/m 0 min 0 min 0 W/m 12,6 km/h (3 Bft) 97,87 %
21.03.2016 19:22 7,9 C 7,8 C 6,7 C 81 % 0 lf 1017,3 hPa 0,0 l/m 0 min 0 min 0 W/m 12,6 km/h (3 Bft) 95,74 %
21.03.2016 19:24 7,9 C 7,8 C 6,7 C 81 % 0 lf 1017,2 hPa 0,0 l/m 0 min 0 min 0 W/m 12,6 km/h (3 Bft) 100,00 %
21.03.2016 19:26 7,9 C 7,8 C 6,7 C 81 % 0 lf 1017,3 hPa 0,0 l/m 0 min 0 min 0 W/m 14,6 km/h (3 Bft) 100,00 %
21.03.2016 19:28 7,9 C 7,8 C 6,7 C 81 % 0 lf 1017,3 hPa 0,0 l/m 0 min 0 min 0 W/m 12,6 km/h (3 Bft) 95,74 %
21.03.2016 19:30 7,8 C 7,8 C 6,7 C 81 % 0 lf 1017,3 hPa 0,0 l/m 0 min 0 min 0 W/m 14,6 km/h (3 Bft) 100,00 %
21.03.2016 19:32 7,8 C 7,8 C 6,7 C 81 % 0 lf 1017,3 hPa 0,0 l/m 0 min 0 min 0 W/m 10,5 km/h (2 Bft) 96,30 %
21.03.2016 19:34 7,8 C 7,8 C 6,1 C 81 % 0 lf 1017,3 hPa 0,0 l/m 0 min 0 min 0 W/m 8,4 km/h (2 Bft) 100,00 %
21.03.2016 19:36 7,8 C 7,8 C 6,1 C 82 % 0 lf 1017,3 hPa 0,0 l/m 0 min 0 min 0 W/m 14,6 km/h (3 Bft) 98,00 %
21.03.2016 19:38 7,8 C 7,8 C 6,1 C 82 % 0 lf 1017,3 hPa 0,0 l/m 0 min 0 min 0 W/m 12,6 km/h (3 Bft) 97,83 %
21.03.2016 19:40 7,8 C 7,8 C 6,1 C 81 % 0 lf 1017,3 hPa 0,0 l/m 0 min 0 min 0 W/m 10,5 km/h (2 Bft) 93,62 %
21.03.2016 19:42 7,8 C 7,8 C 6,1 C 81 % 0 lf 1017,3 hPa 0,0 l/m 0 min 0 min 0 W/m 14,6 km/h (3 Bft) 100,00 %
21.03.2016 19:44 7,8 C 7,8 C 6,1 C 81 % 0 lf 1017,2 hPa 0,0 l/m 0 min 0 min 0 W/m 10,5 km/h (2 Bft) 100,00 %
21.03.2016 19:46 7,8 C 7,8 C 6,1 C 81 % 0 lf 1017,3 hPa 0,0 l/m 0 min 0 min 0 W/m 10,5 km/h (2 Bft) 95,74 %
21.03.2016 19:48 7,8 C 7,8 C 6,1 C 81 % 0 lf 1017,3 hPa 0,0 l/m 0 min 0 min 0 W/m 12,6 km/h (3 Bft) 97,87 %
21.03.2016 19:50 7,7 C 7,8 C 6,1 C 82 % 0 lf 1017,3 hPa 0,0 l/m 0 min 0 min 0 W/m 10,5 km/h (2 Bft) 97,83 %
21.03.2016 19:52 7,7 C 7,8 C 6,1 C 82 % 0 lf 1017,2 hPa 0,0 l/m 0 min 0 min 0 W/m 10,5 km/h (2 Bft) 100,00 %
21.03.2016 19:54 7,7 C 7,8 C 6,1 C 82 % 0 lf 1017,3 hPa 0,0 l/m 0 min 0 min 0 W/m 8,4 km/h (2 Bft) 100,00 %
21.03.2016 19:56 7,7 C 7,8 C 6,1 C 82 % 0 lf 1017,2 hPa 0,0 l/m 0 min 0 min 0 W/m 14,6 km/h (3 Bft) 97,87 %
21.03.2016 19:58 7,7 C 7,8 C 6,1 C 81 % 0 lf 1017,2 hPa 0,0 l/m 0 min 0 min 0 W/m 12,6 km/h (3 Bft) 95,74 %
21.03.2016 20:00 7,7 C 7,8 C 6,1 C 81 % 0 lf 1017,2 hPa 0,0 l/m 0 min 0 min 0 W/m 16,7 km/h (3 Bft) 100,00 %
21.03.2016 20:02 7,7 C 7,8 C 6,1 C 81 % 0 lf 1017,2 hPa 0,0 l/m 0 min 0 min 0 W/m 8,4 km/h (2 Bft) 95,65 %
21.03.2016 20:04 7,7 C 7,8 C 6,1 C 81 % 0 lf 1017,2 hPa 0,0 l/m 0 min 0 min 0 W/m 12,6 km/h (3 Bft) 97,87 %
21.03.2016 20:06 7,7 C 7,8 C 6,1 C 82 % 0 lf 1017,2 hPa 0,0 l/m 0 min 0 min 0 W/m 14,6 km/h (3 Bft) 100,00 %
21.03.2016 20:08 7,7 C 7,8 C 6,1 C 82 % 0 lf 1017,2 hPa 0,0 l/m 0 min 0 min 0 W/m 14,6 km/h (3 Bft) 95,74 %
21.03.2016 20:10 7,7 C 7,8 C 6,1 C 82 % 0 lf 1017,2 hPa 0,0 l/m 0 min 0 min 0 W/m 16,7 km/h (3 Bft) 97,87 %
21.03.2016 20:12 7,7 C 7,8 C 6,1 C 82 % 0 lf 1017,2 hPa 0,0 l/m 0 min 0 min 0 W/m 14,6 km/h (3 Bft) 95,83 %
21.03.2016 20:14 7,7 C 7,8 C 6,1 C 82 % 0 lf 1017,2 hPa 0,0 l/m 0 min 0 min 0 W/m 8,4 km/h (2 Bft) 97,83 %
21.03.2016 20:16 7,7 C 7,8 C 6,1 C 82 % 0 lf 1017,2 hPa 0,0 l/m 0 min 0 min 0 W/m 14,6 km/h (3 Bft) 100,00 %
21.03.2016 20:18 7,7 C 7,8 C 6,1 C 82 % 0 lf 1017,2 hPa 0,0 l/m 0 min 0 min 0 W/m 14,6 km/h (3 Bft) 97,87 %
21.03.2016 20:20 7,7 C 7,8 C 6,1 C 82 % 0 lf 1017,3 hPa 0,0 l/m 0 min 0 min 0 W/m 12,6 km/h (3 Bft) 97,87 %
21.03.2016 20:22 7,6 C 7,8 C 6,1 C 82 % 0 lf 1017,3 hPa 0,0 l/m 0 min 0 min 0 W/m 14,6 km/h (3 Bft) 97,87 %
21.03.2016 20:24 7,6 C 7,8 C 6,1 C 82 % 0 lf 1017,3 hPa 0,0 l/m 0 min 0 min 0 W/m 8,4 km/h (2 Bft) 95,74 %
21.03.2016 20:26 7,6 C 7,8 C 6,1 C 82 % 0 lf 1017,3 hPa 0,0 l/m 0 min 0 min 0 W/m 10,5 km/h (2 Bft) 95,74 %
21.03.2016 20:28 7,6 C 7,8 C 6,1 C 82 % 0 lf 1017,3 hPa 0,0 l/m 0 min 0 min 0 W/m 10,5 km/h (2 Bft) 95,65 %
21.03.2016 20:30 7,6 C 7,8 C 6,1 C 82 % 0 lf 1017,3 hPa 0,0 l/m 0 min 0 min 0 W/m 16,7 km/h (3 Bft) 97,87 %
21.03.2016 20:32 7,6 C 7,8 C 6,1 C 82 % 0 lf 1017,2 hPa 0,0 l/m 0 min 0 min 0 W/m 14,6 km/h (3 Bft) 93,62 %
21.03.2016 20:34 7,6 C 7,8 C 6,1 C 82 % 0 lf 1017,2 hPa 0,0 l/m 0 min 0 min 0 W/m 12,6 km/h (3 Bft) 97,87 %
21.03.2016 20:36 7,6 C 7,8 C 6,1 C 82 % 0 lf 1017,3 hPa 0,0 l/m 0 min 0 min 0 W/m 14,6 km/h (3 Bft) 95,74 %
21.03.2016 20:38 7,6 C 7,8 C 6,1 C 82 % 0 lf 1017,2 hPa 0,0 l/m 0 min 0 min 0 W/m 18,8 km/h (3 Bft) 97,87 %
21.03.2016 20:40 7,6 C 7,8 C 6,1 C 82 % 0 lf 1017,2 hPa 0,0 l/m 0 min 0 min 0 W/m 14,6 km/h (3 Bft) 95,65 %
21.03.2016 20:42 7,6 C 7,8 C 6,1 C 82 % 0 lf 1017,2 hPa 0,0 l/m 0 min 0 min 0 W/m 12,6 km/h (3 Bft) 93,62 %
21.03.2016 20:44 7,6 C 7,8 C 6,1 C 82 % 0 lf 1017,2 hPa 0,0 l/m 0 min 0 min 0 W/m 10,5 km/h (2 Bft) 97,87 %
21.03.2016 20:46 7,6 C 7,8 C 6,1 C 82 % 0 lf 1017,2 hPa 0,0 l/m 0 min 0 min 0 W/m 8,4 km/h (2 Bft) 95,74 %
21.03.2016 20:48 7,6 C 7,8 C 6,1 C 83 % 0 lf 1017,2 hPa 0,0 l/m 0 min 0 min 0 W/m 14,6 km/h (3 Bft) 95,74 %
21.03.2016 20:50 7,6 C 7,8 C 6,1 C 83 % 0 lf 1017,1 hPa 0,0 l/m 0 min 0 min 0 W/m 12,6 km/h (3 Bft) 100,00 %
21.03.2016 20:52 7,6 C 7,8 C 6,1 C 83 % 0 lf 1017,1 hPa 0,0 l/m 0 min 0 min 0 W/m 12,6 km/h (3 Bft) 97,83 %
21.03.2016 20:54 7,6 C 7,8 C 6,1 C 83 % 0 lf 1017,1 hPa 0,0 l/m 0 min 0 min 0 W/m 10,5 km/h (2 Bft) 97,87 %
21.03.2016 20:56 7,6 C 7,8 C 6,1 C 83 % 0 lf 1017,1 hPa 0,0 l/m 0 min 0 min 0 W/m 12,6 km/h (3 Bft) 93,62 %
21.03.2016 20:58 7,6 C 7,8 C 6,1 C 83 % 0 lf 1017,1 hPa 0,0 l/m 0 min 0 min 0 W/m 14,6 km/h (3 Bft) 93,62 %
21.03.2016 21:00 7,6 C 7,8 C 6,1 C 83 % 0 lf 1017,2 hPa 0,0 l/m 0 min 0 min 0 W/m 10,5 km/h (2 Bft) 91,49 %
21.03.2016 21:02 7,6 C 7,8 C 6,1 C 83 % 0 lf 1017,1 hPa 0,0 l/m 0 min 0 min 0 W/m 14,6 km/h (3 Bft) 93,48 %
21.03.2016 21:04 7,6 C 7,8 C 6,1 C 83 % 0 lf 1017,1 hPa 0,0 l/m 0 min 0 min 0 W/m 8,4 km/h (2 Bft) 91,49 %
21.03.2016 21:06 7,6 C 7,8 C 6,1 C 83 % 0 lf 1017,0 hPa 0,0 l/m 0 min 0 min 0 W/m 10,5 km/h (2 Bft) 93,62 %
21.03.2016 21:08 7,6 C 7,8 C 6,1 C 83 % 0 lf 1017,1 hPa 0,0 l/m 0 min 0 min 0 W/m 14,6 km/h (3 Bft) 93,62 %
21.03.2016 21:10 7,6 C 7,8 C 6,1 C 83 % 0 lf 1017,1 hPa 0,0 l/m 0 min 0 min 0 W/m 10,5 km/h (2 Bft) 93,62 %
21.03.2016 21:12 7,6 C 7,8 C 6,1 C 83 % 0 lf 1017,1 hPa 0,0 l/m 0 min 0 min 0 W/m 12,6 km/h (3 Bft) 95,74 %
21.03.2016 21:14 7,6 C 7,8 C 6,1 C 83 % 0 lf 1017,0 hPa 0,0 l/m 0 min 0 min 0 W/m 10,5 km/h (2 Bft) 95,65 %
21.03.2016 21:16 7,6 C 7,8 C 6,1 C 83 % 2 lf 1017,1 hPa 0,0 l/m 0 min 0 min 0 W/m 18,8 km/h (3 Bft) 95,74 %
21.03.2016 21:18 7,6 C 7,8 C 6,1 C 83 % 2 lf 1017,1 hPa 0,0 l/m 0 min 0 min 0 W/m 12,6 km/h (3 Bft) 95,74 %
21.03.2016 21:20 7,6 C 7,2 C 6,1 C 84 % 3 lf 1017,1 hPa 0,0 l/m 0 min 2 min 0 W/m 20,9 km/h (4 Bft) 91,49 %
21.03.2016 21:22 7,6 C 7,2 C 6,1 C 84 % 5 lf 1017,0 hPa 0,0 l/m 0 min 2 min 0 W/m 16,7 km/h (3 Bft) 95,74 %
21.03.2016 21:24 7,6 C 7,2 C 5,6 C 84 % 3 lf 1017,1 hPa 0,0 l/m 0 min 2 min 0 W/m 12,6 km/h (3 Bft) 95,74 %
21.03.2016 21:26 7,6 C 7,2 C 5,6 C 84 % 8 lf 1017,1 hPa 0,0 l/m 0 min 2 min 0 W/m 12,6 km/h (3 Bft) 93,48 %
21.03.2016 21:28 7,6 C 7,2 C 5,6 C 85 % 13 lf 1017,1 hPa 0,0 l/m 0 min 2 min 0 W/m 16,7 km/h (3 Bft) 95,74 %
21.03.2016 21:30 7,6 C 7,2 C 5,6 C 85 % 15 lf 1017,1 hPa 0,0 l/m 0 min 2 min 0 W/m 14,6 km/h (3 Bft) 93,62 %
21.03.2016 21:32 7,6 C 7,2 C 5,6 C 85 % 15 lf 1017,1 hPa 0,0 l/m 0 min 2 min 0 W/m 14,6 km/h (3 Bft) 96,23 %
21.03.2016 21:34 7,5 C 6,7 C 5,6 C 85 % 15 lf 1017,2 hPa 0,0 l/m 0 min 2 min 0 W/m 12,6 km/h (3 Bft) 93,62 %
21.03.2016 21:36 7,5 C 6,7 C 5,0 C 85 % 15 lf 1017,2 hPa 0,0 l/m 0 min 2 min 0 W/m 16,7 km/h (3 Bft) 95,65 %
21.03.2016 21:38 7,5 C 6,7 C 5,0 C 86 % 15 lf 1017,2 hPa 0,0 l/m 0 min 2 min 0 W/m 14,6 km/h (3 Bft) 95,74 %
21.03.2016 21:40 7,5 C 6,7 C 5,0 C 86 % 15 lf 1017,3 hPa 0,0 l/m 0 min 2 min 0 W/m 16,7 km/h (3 Bft) 95,74 %
21.03.2016 21:42 7,4 C 6,7 C 5,0 C 86 % 15 lf 1017,3 hPa 0,0 l/m 0 min 2 min 0 W/m 23,0 km/h (4 Bft) 97,87 %
21.03.2016 21:44 7,4 C 6,1 C 5,0 C 87 % 15 lf 1017,3 hPa 0,0 l/m 0 min 2 min 0 W/m 27,2 km/h (4 Bft) 97,87 %
21.03.2016 21:46 7,4 C 6,1 C 5,0 C 87 % 15 lf 1017,2 hPa 0,0 l/m 0 min 0 min 0 W/m 18,8 km/h (3 Bft) 100,00 %
21.03.2016 21:48 7,3 C 6,1 C 5,0 C 87 % 15 lf 1017,2 hPa 0,0 l/m 0 min 0 min 0 W/m 20,9 km/h (4 Bft) 95,12 %
21.03.2016 21:50 7,3 C 6,1 C 5,0 C 87 % 15 lf 1017,2 hPa 0,0 l/m 0 min 0 min 0 W/m 18,8 km/h (3 Bft) 98,08 %
21.03.2016 21:52 7,2 C 6,1 C 5,0 C 87 % 15 lf 1017,2 hPa 0,0 l/m 0 min 0 min 0 W/m 18,8 km/h (3 Bft) 97,87 %
21.03.2016 21:54 7,2 C 6,1 C 5,0 C 87 % 15 lf 1017,2 hPa 0,0 l/m 0 min 0 min 0 W/m 16,7 km/h (3 Bft) 97,87 %
21.03.2016 21:56 7,2 C 6,1 C 5,0 C 87 % 15 lf 1017,2 hPa 0,0 l/m 0 min 0 min 0 W/m 14,6 km/h (3 Bft) 93,62 %
21.03.2016 21:58 7,2 C 6,1 C 5,0 C 88 % 15 lf 1017,2 hPa 0,0 l/m 0 min 0 min 0 W/m 12,6 km/h (3 Bft) 100,00 %
21.03.2016 22:00 7,1 C 6,1 C 5,0 C 88 % 15 lf 1017,1 hPa 0,0 l/m 0 min 0 min 0 W/m 12,6 km/h (3 Bft) 95,65 %
21.03.2016 22:02 7,1 C 6,1 C 4,4 C 88 % 15 lf 1017,2 hPa 0,0 l/m 0 min 0 min 0 W/m 14,6 km/h (3 Bft) 97,92 %
21.03.2016 22:04 7,1 C 6,1 C 4,4 C 88 % 15 lf 1017,2 hPa 0,0 l/m 0 min 0 min 0 W/m 12,6 km/h (3 Bft) 97,87 %
21.03.2016 22:06 7,0 C 6,1 C 4,4 C 88 % 15 lf 1017,2 hPa 0,0 l/m 0 min 0 min 0 W/m 18,8 km/h (3 Bft) 91,49 %
21.03.2016 22:08 7,0 C 6,1 C 4,4 C 88 % 15 lf 1017,2 hPa 0,0 l/m 0 min 0 min 0 W/m 18,8 km/h (3 Bft) 91,49 %
21.03.2016 22:10 6,9 C 6,1 C 4,4 C 88 % 15 lf 1017,1 hPa 0,0 l/m 0 min 0 min 0 W/m 14,6 km/h (3 Bft) 97,87 %
21.03.2016 22:12 6,9 C 6,1 C 4,4 C 88 % 15 lf 1017,2 hPa 0,0 l/m 0 min 0 min 0 W/m 10,5 km/h (2 Bft) 97,83 %
21.03.2016 22:14 6,9 C 6,1 C 4,4 C 88 % 15 lf 1017,2 hPa 0,0 l/m 0 min 0 min 0 W/m 25,1 km/h (4 Bft) 95,74 %
21.03.2016 22:16 6,8 C 6,1 C 4,4 C 88 % 15 lf 1017,2 hPa 0,0 l/m 0 min 0 min 0 W/m 16,7 km/h (3 Bft) 97,87 %
21.03.2016 22:18 6,8 C 6,1 C 4,4 C 89 % 15 lf 1017,1 hPa 0,0 l/m 0 min 0 min 0 W/m 14,6 km/h (3 Bft) 93,62 %
21.03.2016 22:20 6,8 C 6,1 C 4,4 C 89 % 15 lf 1017,1 hPa 0,0 l/m 0 min 0 min 0 W/m 10,5 km/h (2 Bft) 97,87 %
21.03.2016 22:22 6,8 C 6,1 C 4,4 C 89 % 15 lf 1017,1 hPa 0,0 l/m 0 min 0 min 0 W/m 16,7 km/h (3 Bft) 95,65 %
21.03.2016 22:24 6,7 C 6,1 C 4,4 C 89 % 15 lf 1017,0 hPa 0,0 l/m 0 min 0 min 0 W/m 12,6 km/h (3 Bft) 95,74 %
21.03.2016 22:26 6,7 C 6,1 C 4,4 C 89 % 15 lf 1017,1 hPa 0,0 l/m 0 min 0 min 0 W/m 16,7 km/h (3 Bft) 95,74 %
21.03.2016 22:28 6,7 C 6,1 C 4,4 C 89 % 15 lf 1017,0 hPa 0,0 l/m 0 min 0 min 0 W/m 14,6 km/h (3 Bft) 93,62 %
21.03.2016 22:30 6,7 C 6,1 C 4,4 C 89 % 15 lf 1017,0 hPa 0,0 l/m 0 min 0 min 0 W/m 16,7 km/h (3 Bft) 93,62 %
21.03.2016 22:32 6,6 C 6,1 C 4,4 C 89 % 15 lf 1017,0 hPa 0,0 l/m 0 min 0 min 0 W/m 12,6 km/h (3 Bft) 95,83 %
21.03.2016 22:34 6,6 C 6,1 C 4,4 C 89 % 15 lf 1017,0 hPa 0,0 l/m 0 min 0 min 0 W/m 14,6 km/h (3 Bft) 95,65 %
21.03.2016 22:36 6,6 C 6,7 C 4,4 C 89 % 15 lf 1017,0 hPa 0,0 l/m 0 min 0 min 0 W/m 20,9 km/h (4 Bft) 97,87 %
21.03.2016 22:38 6,6 C 6,7 C 4,4 C 89 % 15 lf 1017,0 hPa 0,0 l/m 0 min 0 min 0 W/m 10,5 km/h (2 Bft) 95,74 %
21.03.2016 22:40 6,6 C 6,7 C 4,4 C 89 % 15 lf 1017,0 hPa 0,0 l/m 0 min 0 min 0 W/m 18,8 km/h (3 Bft) 95,74 %
21.03.2016 22:42 6,5 C 6,1 C 4,4 C 89 % 15 lf 1017,0 hPa 0,0 l/m 0 min 0 min 0 W/m 23,0 km/h (4 Bft) 97,87 %
21.03.2016 22:44 6,5 C 6,1 C 4,4 C 89 % 15 lf 1017,0 hPa 0,0 l/m 0 min 0 min 0 W/m 18,8 km/h (3 Bft) 95,74 %
21.03.2016 22:46 6,4 C 6,1 C 4,4 C 89 % 15 lf 1017,0 hPa 0,0 l/m 0 min 0 min 0 W/m 18,8 km/h (3 Bft) 95,65 %
21.03.2016 22:48 6,4 C 6,1 C 4,4 C 89 % 15 lf 1017,0 hPa 0,0 l/m 0 min 0 min 0 W/m 20,9 km/h (4 Bft) 97,87 %
21.03.2016 22:50 6,4 C 6,1 C 4,4 C 89 % 15 lf 1017,0 hPa 0,0 l/m 0 min 0 min 0 W/m 20,9 km/h (4 Bft) 97,87 %
21.03.2016 22:52 6,4 C 6,1 C 4,4 C 89 % 15 lf 1017,0 hPa 0,0 l/m 0 min 0 min 0 W/m 23,0 km/h (4 Bft) 95,74 %
21.03.2016 22:54 6,4 C 6,1 C 4,4 C 89 % 15 lf 1017,0 hPa 0,0 l/m 0 min 0 min 0 W/m 18,8 km/h (3 Bft) 97,87 %
21.03.2016 22:56 6,4 C 6,1 C 4,4 C 89 % 15 lf 1017,0 hPa 0,0 l/m 0 min 0 min 0 W/m 18,8 km/h (3 Bft) 97,87 %
21.03.2016 22:58 6,3 C 6,1 C 4,4 C 89 % 15 lf 1017,0 hPa 0,0 l/m 0 min 0 min 0 W/m 12,6 km/h (3 Bft) 95,65 %
21.03.2016 23:00 6,3 C 6,1 C 4,4 C 89 % 14 lf 1017,0 hPa 0,0 l/m 0 min 0 min 0 W/m 12,6 km/h (3 Bft) 97,87 %
21.03.2016 23:02 6,3 C 6,1 C 4,4 C 89 % 14 lf 1017,1 hPa 0,0 l/m 0 min 0 min 0 W/m 16,7 km/h (3 Bft) 95,92 %
21.03.2016 23:04 6,3 C 6,1 C 4,4 C 89 % 13 lf 1017,1 hPa 0,0 l/m 0 min 0 min 0 W/m 12,6 km/h (3 Bft) 97,30 %
21.03.2016 23:06 6,3 C 6,1 C 4,4 C 89 % 12 lf 1017,0 hPa 0,0 l/m 0 min 0 min 0 W/m 10,5 km/h (2 Bft) 97,87 %
21.03.2016 23:08 6,3 C 6,1 C 4,4 C 89 % 11 lf 1017,0 hPa 0,0 l/m 0 min 0 min 0 W/m 12,6 km/h (3 Bft) 95,74 %
21.03.2016 23:10 6,2 C 6,1 C 4,4 C 89 % 10 lf 1017,0 hPa 0,0 l/m 0 min 0 min 0 W/m 6,3 km/h (2 Bft) 97,87 %
21.03.2016 23:12 6,2 C 6,1 C 4,4 C 89 % 8 lf 1017,0 hPa 0,0 l/m 0 min 0 min 0 W/m 6,3 km/h (2 Bft) 95,65 %
21.03.2016 23:14 6,2 C 6,1 C 4,4 C 89 % 5 lf 1017,0 hPa 0,0 l/m 0 min 0 min 0 W/m 12,6 km/h (3 Bft) 97,87 %
21.03.2016 23:16 6,2 C 6,1 C 4,4 C 89 % 3 lf 1017,0 hPa 0,0 l/m 0 min 0 min 0 W/m 10,5 km/h (2 Bft) 93,62 %
21.03.2016 23:18 6,2 C 6,1 C 4,4 C 89 % 3 lf 1017,0 hPa 0,0 l/m 0 min 0 min 0 W/m 10,5 km/h (2 Bft) 97,87 %
21.03.2016 23:20 6,2 C 6,1 C 4,4 C 89 % 2 lf 1017,0 hPa 0,0 l/m 0 min 0 min 0 W/m 8,4 km/h (2 Bft) 97,87 %
21.03.2016 23:22 6,2 C 6,1 C 4,4 C 89 % 1 lf 1017,0 hPa 0,0 l/m 0 min 0 min 0 W/m 12,6 km/h (3 Bft) 95,74 %
21.03.2016 23:24 6,2 C 6,1 C 4,4 C 89 % 0 lf 1017,0 hPa 0,0 l/m 0 min 0 min 0 W/m 8,4 km/h (2 Bft) 95,65 %
21.03.2016 23:26 6,2 C 6,1 C 4,4 C 89 % 0 lf 1017,0 hPa 0,0 l/m 0 min 0 min 0 W/m 6,3 km/h (2 Bft) 93,62 %
21.03.2016 23:28 6,2 C 6,1 C 4,4 C 89 % 0 lf 1017,0 hPa 0,0 l/m 0 min 0 min 0 W/m 8,4 km/h (2 Bft) 95,74 %
21.03.2016 23:30 6,2 C 6,1 C 4,4 C 89 % 0 lf 1017,1 hPa 0,0 l/m 0 min 0 min 0 W/m 10,5 km/h (2 Bft) 97,87 %
21.03.2016 23:32 6,2 C 6,1 C 4,4 C 89 % 0 lf 1017,0 hPa 0,0 l/m 0 min 0 min 0 W/m 10,5 km/h (2 Bft) 95,74 %
21.03.2016 23:34 6,2 C 6,1 C 4,4 C 89 % 0 lf 1016,9 hPa 0,0 l/m 0 min 0 min 0 W/m 8,4 km/h (2 Bft) 97,83 %
21.03.2016 23:36 6,1 C 6,1 C 4,4 C 89 % 0 lf 1016,9 hPa 0,0 l/m 0 min 0 min 0 W/m 10,5 km/h (2 Bft) 97,87 %
21.03.2016 23:38 6,1 C 6,1 C 4,4 C 89 % 0 lf 1017,0 hPa 0,0 l/m 0 min 0 min 0 W/m 8,4 km/h (2 Bft) 100,00 %
21.03.2016 23:40 6,1 C 6,1 C 4,4 C 89 % 0 lf 1016,9 hPa 0,0 l/m 0 min 0 min 0 W/m 8,4 km/h (2 Bft) 95,74 %
21.03.2016 23:42 6,1 C 6,1 C 4,4 C 89 % 0 lf 1016,9 hPa 0,0 l/m 0 min 0 min 0 W/m 10,5 km/h (2 Bft) 97,87 %
21.03.2016 23:44 6,1 C 6,1 C 4,4 C 89 % 0 lf 1017,0 hPa 0,0 l/m 0 min 0 min 0 W/m 8,4 km/h (2 Bft) 95,74 %
21.03.2016 23:46 6,1 C 6,1 C 4,4 C 89 % 0 lf 1017,0 hPa 0,0 l/m 0 min 0 min 0 W/m 8,4 km/h (2 Bft) 91,30 %
21.03.2016 23:48 6,1 C 6,1 C 4,4 C 89 % 0 lf 1016,9 hPa 0,0 l/m 0 min 0 min 0 W/m 10,5 km/h (2 Bft) 97,87 %
21.03.2016 23:50 6,1 C 6,1 C 4,4 C 89 % 0 lf 1016,9 hPa 0,0 l/m 0 min 0 min 0 W/m 14,6 km/h (3 Bft) 95,74 %
21.03.2016 23:52 6,1 C 6,1 C 4,4 C 90 % 0 lf 1016,9 hPa 0,0 l/m 0 min 0 min 0 W/m 12,6 km/h (3 Bft) 95,74 %
21.03.2016 23:54 6,1 C 6,1 C 4,4 C 90 % 0 lf 1016,9 hPa 0,0 l/m 0 min 0 min 0 W/m 8,4 km/h (2 Bft) 95,74 %
21.03.2016 23:56 6,1 C 6,1 C 4,4 C 90 % 0 lf 1016,9 hPa 0,0 l/m 0 min 0 min 0 W/m 12,6 km/h (3 Bft) 91,49 %
21.03.2016 23:58 6,0 C 6,1 C 4,4 C 90 % 0 lf 1016,9 hPa 0,0 l/m 0 min 0 min 0 W/m 12,6 km/h (3 Bft) 95,65 %
_ Min-Zeit 05:48 04:24 02:08 13:56 08:36 23:34 - - - - 01:48 07:08
Minimum _ 5,3 C 5,0 C 3,9 C 66 % 0 lf 1016,9 hPa - - - - 4,2 km/h (1 Bft) 82,98 %
_ Max-Zeit 14:16 10:56 13:30 07:48 00:00 11:36 10:18 09:02 04:16 10:54 11:04 01:00
Maximum _ 10,5 C 15,6 C 11,7 C 97 % 15 lf 1020,1 hPa 0,2 l/m 2 min 2 min 491 W/m 31,4 km/h
N (5 Bft)
100,00 %
Durchschnitt _ 7,3 C 8,0 C 6,1 C 86 % 7 lf 1018,5 hPa #0,2 l/m #1:48 h #46 min. 149 W/m 13,4 km/h (3 Bft) 96,03 %
© 2016 W. Hausmann